GFSNE_prec_precacc12_009.txt.gz
Total_Precipitation_Accumulation
0.00 0.00 0.00 0.00 0.00 0.00 0.00 0.00 0.00 0.00 0.00 0.00 0.00 0.00 0.00 0.02 0.04 0.15 0.24 0.19 0.14 0.11 0.12 0.12 0.12 0.20 0.34 0.35 0.29 0.11 0.08 0.04 0.00 0.00 0.00 0.01 0.01 0.01
0.00 0.00 0.00 0.00 0.00 0.00 0.00 0.00 0.00 0.00 0.00 0.00 0.00 0.00 0.00 0.03 0.07 0.15 0.31 0.41 0.25 0.19 0.20 0.20 0.21 0.20 0.18 0.37 0.61 0.49 0.11 0.03 0.01 0.00 0.00 0.00 0.01 0.01
0.00 0.00 0.00 0.00 0.00 0.00 0.01 0.01 0.01 0.01 0.01 0.00 0.00 0.00 0.00 0.01 0.03 0.10 0.22 0.41 0.52 0.36 0.23 0.25 0.27 0.28 0.31 0.26 0.32 0.63 0.74 0.20 0.01 0.00 0.00 0.00 0.00 0.01
0.00 0.00 0.00 0.00 0.00 0.00 0.01 0.01 0.01 0.01 0.02 0.00 0.00 0.00 0.00 0.00 0.00 0.02 0.10 0.24 0.42 0.53 0.49 0.31 0.24 0.27 0.32 0.42 0.42 0.37 0.47 0.68 0.27 0.02 0.00 0.00 0.00 0.00
0.00 0.00 0.00 0.00 0.00 0.00 0.00 0.01 0.01 0.01 0.01 0.01 0.00 0.00 0.00 0.00 0.00 0.01 0.03 0.07 0.16 0.30 0.43 0.55 0.44 0.26 0.25 0.30 0.39 0.48 0.43 0.36 0.46 0.32 0.05 0.00 0.00 0.00
0.00 0.00 0.00 0.00 0.00 0.00 0.00 0.00 0.01 0.02 0.02 0.02 0.00 0.00 0.00 0.00 0.01 0.02 0.03 0.05 0.05 0.13 0.30 0.49 0.55 0.48 0.30 0.23 0.27 0.30 0.38 0.50 0.45 0.40 0.34 0.16 0.02 0.00
0.00 0.00 0.00 0.00 0.00 0.00 0.00 0.00 0.01 0.02 0.02 0.02 0.01 0.01 0.01 0.00 0.01 0.03 0.02 0.04 0.06 0.08 0.18 0.36 0.52 0.59 0.60 0.37 0.21 0.23 0.29 0.32 0.41 0.47 0.41 0.31 0.24 0.09
0.01 0.00 0.00 0.00 0.00 0.00 0.00 0.00 0.00 0.01 0.02 0.02 0.03 0.03 0.01 0.01 0.01 0.03 0.04 0.02 0.04 0.07 0.10 0.23 0.39 0.51 0.65 0.67 0.48 0.34 0.27 0.31 0.33 0.38 0.45 0.35 0.24 0.25
0.01 0.01 0.01 0.00 0.00 0.01 0.00 0.00 0.00 0.00 0.00 0.01 0.01 0.01 0.01 0.01 0.03 0.07 0.06 0.04 0.02 0.02 0.05 0.14 0.28 0.40 0.48 0.67 0.71 0.51 0.44 0.45 0.47 0.45 0.44 0.47 0.34 0.22
0.01 0.01 0.01 0.01 0.01 0.01 0.02 0.03 0.03 0.01 0.01 0.00 0.00 0.00 0.00 0.01 0.02 0.04 0.06 0.06 0.03 0.01 0.04 0.09 0.21 0.32 0.36 0.44 0.66 0.85 0.73 0.61 0.63 0.68 0.62 0.55 0.55 0.38
0.01 0.01 0.02 0.03 0.01 0.01 0.08 0.16 0.07 0.03 0.02 0.03 0.02 0.00 0.00 0.00 0.00 0.05 0.05 0.08 0.07 0.03 0.04 0.07 0.10 0.21 0.34 0.48 0.62 0.69 0.88 0.96 0.79 0.74 0.77 0.68 0.60 0.53
0.04 0.02 0.02 0.02 0.01 0.02 0.12 0.15 0.12 0.03 0.01 0.03 0.04 0.02 0.00 0.00 0.00 0.02 0.07 0.08 0.09 0.06 0.04 0.06 0.07 0.11 0.27 0.43 0.47 0.68 0.79 0.85 0.93 0.86 0.74 0.75 0.70 0.63
0.05 0.03 0.03 0.04 0.07 0.07 0.09 0.17 0.10 0.01 0.01 0.03 0.05 0.05 0.03 0.01 0.00 0.00 0.03 0.10 0.10 0.05 0.00 0.02 0.04 0.08 0.12 0.23 0.39 0.47 0.56 0.76 0.85 0.94 0.94 0.80 0.72 0.61
0.09 0.04 0.04 0.05 0.08 0.09 0.11 0.12 0.08 0.08 0.13 0.14 0.10 0.06 0.05 0.02 0.00 0.00 0.01 0.02 0.06 0.07 0.02 0.01 0.02 0.01 0.05 0.15 0.22 0.43 0.55 0.63 0.66 0.81 0.92 0.97 0.87 0.70
0.07 0.06 0.05 0.04 0.04 0.04 0.03 0.05 0.08 0.16 0.16 0.12 0.12 0.06 0.03 0.03 0.02 0.04 0.06 0.04 0.07 0.12 0.09 0.05 0.03 0.04 0.05 0.07 0.12 0.22 0.37 0.59 0.63 0.62 0.68 0.73 0.68 0.57
0.04 0.02 0.03 0.05 0.07 0.08 0.08 0.08 0.16 0.19 0.14 0.09 0.05 0.06 0.06 0.06 0.06 0.07 0.09 0.11 0.15 0.18 0.21 0.16 0.09 0.08 0.10 0.07 0.04 0.13 0.18 0.32 0.47 0.53 0.53 0.59 0.59 0.52
0.05 0.05 0.05 0.04 0.03 0.03 0.07 0.04 0.04 0.06 0.11 0.08 0.07 0.07 0.14 0.08 0.09 0.14 0.11 0.06 0.13 0.14 0.13 0.16 0.22 0.19 0.08 0.05 0.09 0.12 0.12 0.17 0.27 0.34 0.38 0.42 0.46 0.53
0.05 0.04 0.04 0.04 0.05 0.04 0.09 0.14 0.06 0.04 0.03 0.04 0.11 0.08 0.12 0.17 0.09 0.09 0.10 0.08 0.05 0.11 0.07 0.09 0.10 0.09 0.08 0.12 0.06 0.06 0.11 0.11 0.16 0.20 0.21 0.25 0.28 0.27
0.02 0.04 0.04 0.05 0.05 0.05 0.07 0.11 0.14 0.13 0.07 0.08 0.12 0.13 0.06 0.06 0.11 0.07 0.11 0.12 0.09 0.05 0.06 0.06 0.03 0.04 0.06 0.05 0.07 0.05 0.04 0.05 0.09 0.15 0.17 0.16 0.12 0.13
0.02 0.04 0.05 0.04 0.05 0.05 0.06 0.09 0.11 0.13 0.11 0.11 0.15 0.10 0.06 0.03 0.05 0.08 0.07 0.05 0.08 0.10 0.07 0.07 0.06 0.08 0.07 0.05 0.06 0.08 0.04 0.01 0.05 0.11 0.19 0.18 0.15 0.13
0.04 0.04 0.06 0.05 0.03 0.05 0.05 0.06 0.09 0.10 0.11 0.11 0.11 0.09 0.07 0.06 0.05 0.05 0.04 0.05 0.06 0.08 0.10 0.11 0.08 0.05 0.04 0.03 0.06 0.12 0.14 0.08 0.04 0.04 0.09 0.13 0.10 0.08
0.06 0.06 0.06 0.06 0.06 0.04 0.05 0.06 0.06 0.08 0.06 0.07 0.10 0.07 0.07 0.07 0.06 0.07 0.07 0.06 0.09 0.08 0.05 0.04 0.04 0.01 0.01 0.01 0.01 0.03 0.06 0.10 0.08 0.05 0.03 0.02 0.02 0.03
0.06 0.07 0.06 0.05 0.06 0.06 0.06 0.04 0.04 0.06 0.06 0.06 0.06 0.08 0.09 0.11 0.12 0.09 0.08 0.06 0.04 0.03 0.03 0.05 0.06 0.03 0.01 0.00 0.01 0.02 0.03 0.04 0.03 0.02 0.02 0.02 0.00 0.01

GFSNE_prec_precacc12_015.txt.gz
Total_Precipitation_Accumulation
0.00 0.00 0.00 0.00 0.00 0.00 0.00 0.00 0.00 0.00 0.00 0.00 0.00 0.00 0.00 0.00 0.00 0.00 0.00 0.02 0.04 0.07 0.09 0.10 0.10 0.17 0.32 0.33 0.36 0.57 0.80 0.89 0.72 0.46 0.15 0.06 0.03 0.01
0.00 0.00 0.00 0.00 0.00 0.00 0.00 0.00 0.00 0.00 0.00 0.00 0.00 0.00 0.00 0.01 0.01 0.01 0.00 0.01 0.03 0.08 0.18 0.18 0.18 0.18 0.15 0.31 0.57 0.59 0.64 0.76 0.84 0.81 0.64 0.21 0.07 0.03
0.00 0.00 0.00 0.00 0.00 0.00 0.00 0.00 0.00 0.00 0.01 0.00 0.00 0.00 0.00 0.01 0.01 0.01 0.00 0.01 0.02 0.05 0.14 0.24 0.26 0.27 0.29 0.23 0.27 0.61 0.87 0.76 0.62 0.64 0.64 0.54 0.26 0.08
0.00 0.00 0.00 0.00 0.00 0.00 0.00 0.00 0.00 0.00 0.01 0.00 0.00 0.00 0.00 0.00 0.00 0.00 0.00 0.00 0.00 0.01 0.05 0.16 0.23 0.27 0.32 0.41 0.40 0.34 0.47 0.86 0.83 0.64 0.59 0.64 0.61 0.32
0.00 0.00 0.00 0.00 0.00 0.00 0.00 0.00 0.00 0.00 0.01 0.01 0.00 0.00 0.00 0.00 0.00 0.00 0.01 0.01 0.00 0.00 0.02 0.08 0.20 0.25 0.25 0.29 0.37 0.46 0.42 0.37 0.63 0.85 0.67 0.59 0.57 0.58
0.00 0.00 0.00 0.00 0.00 0.00 0.00 0.00 0.00 0.01 0.01 0.01 0.00 0.00 0.00 0.00 0.00 0.01 0.01 0.00 0.00 0.00 0.01 0.04 0.12 0.22 0.25 0.22 0.26 0.29 0.37 0.49 0.46 0.53 0.82 0.76 0.62 0.60
0.00 0.00 0.00 0.00 0.00 0.00 0.00 0.00 0.00 0.00 0.00 0.01 0.01 0.01 0.01 0.01 0.01 0.01 0.02 0.01 0.00 0.00 0.01 0.02 0.06 0.16 0.29 0.27 0.18 0.21 0.27 0.31 0.40 0.48 0.50 0.68 0.80 0.62
0.00 0.00 0.00 0.00 0.00 0.00 0.00 0.00 0.00 0.00 0.00 0.01 0.01 0.02 0.01 0.01 0.02 0.02 0.04 0.03 0.01 0.00 0.01 0.02 0.02 0.07 0.18 0.31 0.30 0.25 0.20 0.27 0.30 0.33 0.42 0.44 0.48 0.71
0.00 0.00 0.00 0.00 0.00 0.00 0.00 0.00 0.00 0.00 0.00 0.00 0.02 0.01 0.01 0.01 0.02 0.04 0.05 0.05 0.03 0.01 0.01 0.02 0.03 0.04 0.10 0.21 0.34 0.29 0.27 0.29 0.31 0.30 0.33 0.43 0.42 0.42
0.00 0.00 0.00 0.00 0.00 0.00 0.01 0.03 0.02 0.00 0.00 0.00 0.00 0.00 0.00 0.00 0.00 0.01 0.02 0.06 0.03 0.01 0.01 0.03 0.02 0.04 0.05 0.13 0.26 0.42 0.37 0.29 0.36 0.44 0.40 0.40 0.52 0.51
0.00 0.01 0.01 0.02 0.01 0.01 0.06 0.16 0.07 0.02 0.01 0.01 0.01 0.00 0.00 0.00 0.00 0.03 0.06 0.11 0.09 0.03 0.02 0.03 0.03 0.05 0.08 0.10 0.20 0.27 0.45 0.56 0.48 0.52 0.61 0.57 0.56 0.65
0.03 0.02 0.01 0.01 0.01 0.02 0.12 0.17 0.16 0.03 0.00 0.00 0.01 0.01 0.01 0.01 0.02 0.07 0.09 0.11 0.11 0.08 0.03 0.05 0.03 0.03 0.07 0.13 0.16 0.26 0.37 0.49 0.67 0.69 0.63 0.67 0.68 0.70
0.03 0.01 0.01 0.02 0.05 0.08 0.10 0.18 0.12 0.02 0.02 0.02 0.02 0.02 0.01 0.00 0.00 0.01 0.03 0.11 0.14 0.08 0.00 0.03 0.04 0.04 0.05 0.07 0.12 0.20 0.30 0.49 0.63 0.78 0.84 0.76 0.72 0.67
0.11 0.04 0.03 0.05 0.07 0.07 0.07 0.07 0.05 0.09 0.15 0.13 0.10 0.05 0.06 0.02 0.00 0.00 0.00 0.01 0.04 0.08 0.03 0.01 0.03 0.02 0.04 0.07 0.08 0.18 0.30 0.39 0.47 0.64 0.79 0.92 0.91 0.84
0.09 0.07 0.05 0.04 0.04 0.03 0.02 0.03 0.05 0.13 0.14 0.13 0.09 0.04 0.02 0.03 0.02 0.04 0.06 0.04 0.04 0.10 0.10 0.05 0.04 0.03 0.03 0.03 0.05 0.10 0.20 0.37 0.43 0.45 0.56 0.67 0.69 0.70
0.03 0.02 0.02 0.03 0.04 0.06 0.09 0.08 0.14 0.21 0.19 0.14 0.07 0.04 0.07 0.10 0.09 0.07 0.11 0.13 0.15 0.12 0.13 0.13 0.08 0.08 0.08 0.04 0.02 0.06 0.09 0.17 0.30 0.40 0.47 0.57 0.61 0.59
0.04 0.03 0.02 0.01 0.01 0.02 0.05 0.03 0.02 0.05 0.09 0.08 0.07 0.07 0.13 0.10 0.10 0.15 0.17 0.14 0.21 0.14 0.11 0.14 0.20 0.21 0.16 0.09 0.09 0.07 0.08 0.13 0.19 0.27 0.37 0.47 0.55 0.64
0.03 0.02 0.02 0.02 0.04 0.05 0.07 0.08 0.03 0.03 0.02 0.01 0.03 0.06 0.11 0.17 0.09 0.07 0.10 0.17 0.13 0.18 0.15 0.13 0.16 0.25 0.28 0.20 0.09 0.05 0.09 0.11 0.17 0.24 0.29 0.36 0.46 0.52
0.02 0.03 0.02 0.04 0.04 0.05 0.07 0.10 0.11 0.12 0.06 0.06 0.08 0.13 0.08 0.11 0.19 0.11 0.11 0.18 0.18 0.10 0.16 0.18 0.15 0.14 0.14 0.09 0.10 0.07 0.05 0.06 0.12 0.22 0.31 0.34 0.31 0.38
0.03 0.04 0.04 0.04 0.05 0.04 0.04 0.06 0.07 0.09 0.08 0.09 0.15 0.09 0.06 0.02 0.06 0.09 0.09 0.08 0.10 0.11 0.09 0.13 0.13 0.15 0.14 0.12 0.12 0.13 0.07 0.03 0.09 0.16 0.29 0.37 0.40 0.43
0.05 0.04 0.06 0.05 0.03 0.04 0.03 0.03 0.05 0.06 0.07 0.10 0.13 0.10 0.04 0.02 0.02 0.02 0.03 0.03 0.04 0.06 0.09 0.12 0.12 0.10 0.10 0.10 0.07 0.13 0.21 0.16 0.09 0.09 0.16 0.27 0.28 0.27
0.06 0.06 0.05 0.05 0.05 0.04 0.03 0.02 0.02 0.03 0.03 0.04 0.06 0.06 0.05 0.05 0.04 0.04 0.04 0.04 0.04 0.05 0.05 0.09 0.11 0.07 0.05 0.03 0.02 0.03 0.11 0.20 0.15 0.12 0.12 0.09 0.09 0.12
0.06 0.07 0.06 0.04 0.04 0.04 0.04 0.03 0.02 0.03 0.03 0.03 0.03 0.06 0.07 0.08 0.07 0.04 0.04 0.03 0.03 0.05 0.05 0.08 0.10 0.06 0.03 0.03 0.03 0.03 0.05 0.08 0.09 0.06 0.07 0.09 0.06 0.09

GFSNE_prec_precacc12_021.txt.gz
Total_Precipitation_Accumulation
0.17 0.14 0.11 0.08 0.06 0.04 0.02 0.01 0.00 0.00 0.00 0.00 0.00 0.00 0.00 0.00 0.00 0.00 0.00 0.00 0.00 0.00 0.00 0.00 0.00 0.00 0.02 0.01 0.09 0.47 0.73 0.86 0.78 0.68 0.56 0.52 0.60 0.65
0.01 0.01 0.01 0.00 0.00 0.00 0.00 0.00 0.00 0.00 0.00 0.00 0.00 0.00 0.00 0.00 0.00 0.00 0.00 0.00 0.00 0.00 0.00 0.00 0.00 0.00 0.00 0.00 0.02 0.15 0.54 0.73 0.84 0.87 0.89 0.68 0.60 0.63
0.00 0.00 0.00 0.00 0.00 0.00 0.00 0.00 0.00 0.00 0.00 0.00 0.00 0.00 0.00 0.00 0.00 0.00 0.00 0.00 0.00 0.00 0.00 0.00 0.00 0.00 0.00 0.00 0.01 0.03 0.19 0.57 0.61 0.64 0.68 0.76 0.79 0.70
0.00 0.00 0.00 0.00 0.00 0.00 0.00 0.00 0.00 0.00 0.00 0.00 0.00 0.00 0.00 0.00 0.00 0.00 0.00 0.00 0.00 0.00 0.00 0.00 0.00 0.00 0.00 0.00 0.00 0.00 0.02 0.21 0.58 0.62 0.59 0.66 0.76 0.89
0.00 0.00 0.00 0.00 0.00 0.00 0.00 0.00 0.00 0.00 0.00 0.00 0.00 0.00 0.00 0.00 0.00 0.00 0.00 0.00 0.00 0.00 0.00 0.00 0.00 0.00 0.00 0.00 0.00 0.00 0.00 0.01 0.18 0.53 0.62 0.59 0.59 0.68
0.00 0.00 0.00 0.00 0.00 0.00 0.00 0.00 0.00 0.00 0.00 0.00 0.00 0.00 0.00 0.00 0.00 0.00 0.00 0.00 0.00 0.00 0.00 0.00 0.00 0.00 0.00 0.00 0.00 0.00 0.00 0.00 0.02 0.14 0.49 0.60 0.60 0.60
0.00 0.00 0.00 0.00 0.00 0.00 0.00 0.00 0.00 0.00 0.01 0.01 0.01 0.00 0.00 0.01 0.01 0.00 0.00 0.00 0.00 0.00 0.00 0.00 0.00 0.00 0.00 0.00 0.00 0.00 0.00 0.00 0.00 0.02 0.11 0.39 0.56 0.53
0.00 0.00 0.00 0.00 0.00 0.00 0.00 0.00 0.00 0.01 0.02 0.03 0.02 0.01 0.01 0.00 0.01 0.02 0.01 0.02 0.01 0.00 0.00 0.00 0.00 0.00 0.00 0.00 0.00 0.00 0.00 0.00 0.00 0.00 0.03 0.13 0.27 0.47
0.00 0.00 0.00 0.00 0.00 0.00 0.00 0.00 0.00 0.01 0.01 0.03 0.05 0.03 0.01 0.00 0.00 0.02 0.01 0.02 0.02 0.01 0.02 0.02 0.00 0.00 0.00 0.00 0.00 0.00 0.00 0.00 0.00 0.00 0.00 0.04 0.14 0.23
0.00 0.00 0.00 0.00 0.00 0.00 0.01 0.03 0.01 0.01 0.00 0.00 0.01 0.01 0.00 0.00 0.01 0.01 0.01 0.02 0.01 0.00 0.02 0.04 0.00 0.00 0.00 0.00 0.00 0.00 0.00 0.00 0.00 0.00 0.00 0.01 0.06 0.17
0.00 0.00 0.00 0.01 0.00 0.01 0.05 0.10 0.05 0.01 0.00 0.00 0.01 0.01 0.01 0.01 0.01 0.08 0.13 0.11 0.06 0.00 0.00 0.02 0.00 0.00 0.00 0.00 0.00 0.00 0.00 0.00 0.00 0.00 0.00 0.01 0.03 0.14
0.00 0.00 0.00 0.00 0.01 0.02 0.10 0.14 0.14 0.02 0.01 0.01 0.01 0.01 0.01 0.02 0.03 0.15 0.16 0.12 0.06 0.05 0.00 0.00 0.00 0.00 0.00 0.00 0.00 0.00 0.00 0.00 0.00 0.00 0.00 0.00 0.02 0.07
0.01 0.00 0.01 0.01 0.04 0.05 0.06 0.10 0.07 0.03 0.04 0.05 0.04 0.03 0.02 0.01 0.00 0.01 0.06 0.14 0.13 0.07 0.00 0.01 0.01 0.01 0.02 0.01 0.00 0.00 0.00 0.00 0.00 0.00 0.00 0.00 0.02 0.07
0.08 0.05 0.05 0.04 0.04 0.02 0.02 0.03 0.04 0.06 0.08 0.07 0.07 0.05 0.05 0.02 0.00 0.00 0.01 0.03 0.04 0.04 0.01 0.01 0.01 0.02 0.03 0.03 0.01 0.00 0.00 0.00 0.01 0.00 0.00 0.01 0.07 0.17
0.10 0.07 0.04 0.01 0.00 0.00 0.01 0.04 0.05 0.06 0.07 0.08 0.05 0.03 0.03 0.02 0.04 0.05 0.04 0.06 0.08 0.05 0.02 0.05 0.04 0.01 0.02 0.04 0.02 0.01 0.01 0.01 0.03 0.03 0.02 0.02 0.06 0.15
0.04 0.04 0.01 0.00 0.00 0.02 0.05 0.06 0.09 0.12 0.14 0.11 0.06 0.04 0.06 0.08 0.09 0.05 0.09 0.08 0.17 0.08 0.01 0.03 0.05 0.06 0.10 0.05 0.01 0.01 0.01 0.01 0.01 0.05 0.10 0.11 0.11 0.13
0.06 0.03 0.01 0.00 0.00 0.01 0.02 0.02 0.01 0.01 0.02 0.04 0.05 0.04 0.04 0.04 0.03 0.05 0.12 0.13 0.17 0.06 0.05 0.06 0.07 0.10 0.15 0.11 0.08 0.01 0.01 0.02 0.02 0.05 0.11 0.17 0.19 0.19
0.05 0.03 0.02 0.02 0.02 0.02 0.02 0.01 0.00 0.02 0.03 0.03 0.02 0.02 0.02 0.02 0.02 0.02 0.05 0.13 0.10 0.11 0.13 0.11 0.16 0.31 0.34 0.20 0.10 0.03 0.03 0.03 0.05 0.08 0.12 0.16 0.20 0.26
0.05 0.05 0.05 0.04 0.03 0.03 0.03 0.03 0.05 0.06 0.06 0.04 0.04 0.04 0.04 0.07 0.11 0.08 0.06 0.15 0.16 0.12 0.18 0.22 0.23 0.20 0.15 0.08 0.06 0.06 0.07 0.05 0.08 0.11 0.16 0.18 0.20 0.25
0.06 0.06 0.06 0.06 0.04 0.03 0.03 0.02 0.02 0.02 0.02 0.04 0.05 0.05 0.04 0.02 0.03 0.04 0.07 0.08 0.08 0.06 0.06 0.12 0.14 0.14 0.14 0.13 0.15 0.16 0.14 0.10 0.11 0.10 0.12 0.19 0.26 0.31
0.07 0.06 0.06 0.05 0.05 0.04 0.03 0.03 0.03 0.03 0.03 0.04 0.05 0.05 0.03 0.01 0.01 0.01 0.02 0.01 0.02 0.03 0.04 0.07 0.10 0.11 0.12 0.15 0.11 0.13 0.19 0.17 0.09 0.07 0.07 0.15 0.18 0.18
0.08 0.07 0.07 0.06 0.04 0.03 0.03 0.02 0.01 0.01 0.01 0.01 0.02 0.03 0.03 0.02 0.01 0.01 0.01 0.01 0.01 0.02 0.04 0.07 0.09 0.08 0.06 0.04 0.03 0.06 0.13 0.18 0.12 0.07 0.09 0.07 0.07 0.09
0.07 0.06 0.04 0.03 0.02 0.01 0.01 0.01 0.01 0.01 0.01 0.02 0.01 0.02 0.02 0.02 0.02 0.01 0.01 0.01 0.02 0.04 0.04 0.05 0.05 0.04 0.04 0.04 0.04 0.05 0.06 0.07 0.08 0.05 0.05 0.09 0.06 0.08

GFSNE_prec_precacc12_024.txt.gz
Total_Precipitation_Accumulation
0.19 0.16 0.15 0.13 0.11 0.09 0.06 0.05 0.05 0.01 0.00 0.00 0.00 0.00 0.00 0.00 0.00 0.00 0.00 0.00 0.00 0.00 0.00 0.00 0.00 0.00 0.00 0.00 0.01 0.02 0.08 0.37 0.61 0.63 0.55 0.52 0.61 0.68
0.02 0.02 0.02 0.01 0.01 0.01 0.01 0.00 0.00 0.00 0.00 0.00 0.00 0.00 0.00 0.00 0.00 0.00 0.00 0.00 0.00 0.00 0.00 0.00 0.00 0.00 0.00 0.00 0.00 0.01 0.02 0.11 0.36 0.71 0.83 0.66 0.60 0.63
0.00 0.00 0.00 0.00 0.00 0.00 0.00 0.00 0.00 0.00 0.00 0.00 0.00 0.00 0.00 0.00 0.00 0.00 0.00 0.00 0.00 0.00 0.00 0.00 0.00 0.00 0.00 0.00 0.00 0.00 0.00 0.00 0.05 0.22 0.50 0.71 0.78 0.70
0.00 0.00 0.00 0.00 0.00 0.00 0.00 0.00 0.00 0.00 0.00 0.00 0.00 0.00 0.00 0.00 0.00 0.00 0.00 0.00 0.00 0.00 0.00 0.00 0.00 0.00 0.00 0.00 0.00 0.00 0.00 0.00 0.00 0.02 0.16 0.46 0.69 0.88
0.00 0.00 0.00 0.00 0.00 0.00 0.00 0.00 0.00 0.00 0.00 0.00 0.00 0.00 0.00 0.00 0.00 0.00 0.00 0.00 0.00 0.00 0.00 0.00 0.00 0.00 0.00 0.00 0.00 0.00 0.00 0.00 0.00 0.00 0.01 0.07 0.33 0.60
0.00 0.00 0.00 0.00 0.00 0.00 0.00 0.00 0.00 0.00 0.00 0.00 0.00 0.00 0.00 0.00 0.00 0.00 0.00 0.00 0.00 0.00 0.00 0.00 0.00 0.00 0.00 0.00 0.00 0.00 0.00 0.00 0.00 0.00 0.00 0.00 0.06 0.30
0.00 0.00 0.00 0.00 0.00 0.00 0.00 0.00 0.00 0.00 0.01 0.01 0.01 0.00 0.00 0.00 0.00 0.00 0.00 0.00 0.00 0.00 0.00 0.00 0.00 0.00 0.00 0.00 0.00 0.00 0.00 0.00 0.00 0.00 0.00 0.00 0.00 0.05
0.00 0.00 0.00 0.00 0.00 0.00 0.00 0.00 0.00 0.01 0.03 0.04 0.03 0.01 0.01 0.00 0.00 0.01 0.01 0.01 0.01 0.00 0.00 0.00 0.00 0.00 0.00 0.00 0.00 0.00 0.00 0.00 0.00 0.00 0.00 0.00 0.00 0.01
0.00 0.00 0.00 0.00 0.00 0.00 0.00 0.00 0.00 0.01 0.02 0.03 0.05 0.03 0.01 0.00 0.01 0.02 0.02 0.02 0.01 0.00 0.01 0.02 0.01 0.01 0.00 0.00 0.00 0.00 0.00 0.00 0.00 0.00 0.00 0.00 0.00 0.00
0.00 0.00 0.00 0.00 0.00 0.00 0.01 0.03 0.02 0.01 0.01 0.01 0.02 0.01 0.01 0.00 0.01 0.02 0.02 0.03 0.03 0.01 0.01 0.03 0.01 0.01 0.01 0.00 0.00 0.00 0.00 0.00 0.00 0.00 0.00 0.00 0.00 0.00
0.00 0.00 0.00 0.01 0.00 0.01 0.06 0.09 0.05 0.02 0.00 0.00 0.01 0.01 0.01 0.01 0.01 0.09 0.15 0.13 0.09 0.02 0.01 0.02 0.02 0.01 0.00 0.00 0.00 0.00 0.00 0.00 0.00 0.00 0.00 0.00 0.00 0.00
0.00 0.00 0.00 0.00 0.01 0.03 0.13 0.14 0.11 0.02 0.01 0.02 0.01 0.01 0.02 0.02 0.02 0.15 0.17 0.15 0.08 0.06 0.00 0.02 0.02 0.01 0.01 0.01 0.00 0.00 0.00 0.00 0.00 0.00 0.00 0.00 0.01 0.00
0.02 0.01 0.02 0.04 0.04 0.05 0.05 0.07 0.06 0.03 0.03 0.05 0.05 0.04 0.03 0.02 0.01 0.02 0.07 0.15 0.13 0.07 0.00 0.03 0.02 0.01 0.03 0.02 0.01 0.01 0.01 0.01 0.00 0.00 0.00 0.00 0.01 0.01
0.07 0.07 0.07 0.04 0.02 0.00 0.00 0.02 0.04 0.05 0.07 0.07 0.07 0.06 0.06 0.03 0.01 0.02 0.03 0.05 0.05 0.05 0.02 0.07 0.03 0.03 0.05 0.04 0.02 0.01 0.01 0.01 0.01 0.01 0.00 0.00 0.00 0.01
0.11 0.08 0.04 0.00 0.00 0.00 0.01 0.04 0.05 0.05 0.05 0.06 0.05 0.03 0.04 0.03 0.05 0.07 0.06 0.07 0.10 0.06 0.03 0.09 0.08 0.02 0.05 0.05 0.03 0.02 0.03 0.02 0.00 0.01 0.02 0.01 0.00 0.00
0.06 0.06 0.02 0.01 0.01 0.02 0.04 0.05 0.07 0.08 0.09 0.08 0.06 0.04 0.05 0.07 0.08 0.06 0.10 0.09 0.16 0.07 0.02 0.04 0.07 0.08 0.13 0.06 0.03 0.03 0.04 0.05 0.03 0.01 0.02 0.04 0.03 0.01
0.08 0.05 0.03 0.02 0.01 0.01 0.01 0.01 0.01 0.01 0.02 0.03 0.03 0.03 0.03 0.03 0.03 0.04 0.07 0.08 0.11 0.03 0.03 0.04 0.04 0.08 0.11 0.09 0.10 0.02 0.02 0.03 0.02 0.02 0.02 0.04 0.07 0.06
0.07 0.06 0.05 0.04 0.03 0.02 0.01 0.01 0.01 0.01 0.02 0.03 0.03 0.03 0.03 0.03 0.02 0.02 0.02 0.04 0.04 0.03 0.04 0.06 0.13 0.26 0.25 0.15 0.08 0.03 0.04 0.04 0.03 0.02 0.02 0.05 0.07 0.10
0.08 0.07 0.07 0.06 0.04 0.02 0.02 0.02 0.03 0.04 0.05 0.04 0.04 0.04 0.04 0.05 0.06 0.06 0.05 0.10 0.10 0.08 0.10 0.15 0.19 0.20 0.16 0.10 0.08 0.06 0.08 0.06 0.08 0.07 0.04 0.05 0.07 0.11
0.08 0.08 0.07 0.07 0.05 0.03 0.03 0.02 0.02 0.02 0.02 0.03 0.05 0.04 0.02 0.02 0.02 0.03 0.05 0.07 0.07 0.06 0.04 0.10 0.13 0.15 0.19 0.20 0.20 0.15 0.12 0.10 0.10 0.08 0.05 0.08 0.10 0.13
0.08 0.08 0.08 0.07 0.05 0.04 0.03 0.03 0.03 0.03 0.02 0.02 0.02 0.03 0.02 0.02 0.01 0.01 0.02 0.01 0.02 0.02 0.04 0.06 0.08 0.10 0.11 0.16 0.13 0.13 0.13 0.11 0.07 0.08 0.06 0.07 0.09 0.09
0.08 0.08 0.07 0.06 0.04 0.03 0.02 0.02 0.01 0.01 0.01 0.02 0.02 0.02 0.02 0.02 0.02 0.01 0.01 0.01 0.01 0.02 0.02 0.04 0.06 0.06 0.06 0.05 0.05 0.07 0.12 0.14 0.10 0.05 0.04 0.04 0.04 0.05
0.06 0.05 0.04 0.03 0.02 0.01 0.01 0.01 0.01 0.01 0.02 0.02 0.02 0.02 0.02 0.02 0.02 0.01 0.01 0.01 0.01 0.01 0.02 0.02 0.02 0.02 0.03 0.04 0.04 0.05 0.06 0.07 0.07 0.04 0.03 0.05 0.04 0.05

GFSNE_prec_precacc12_027.txt.gz
Total_Precipitation_Accumulation
0.21 0.18 0.16 0.15 0.13 0.11 0.08 0.08 0.10 0.04 0.00 0.00 0.00 0.01 0.01 0.00 0.00 0.00 0.00 0.00 0.00 0.00 0.00 0.00 0.00 0.00 0.00 0.00 0.00 0.01 0.01 0.01 0.06 0.22 0.42 0.47 0.59 0.67
0.06 0.05 0.04 0.03 0.02 0.02 0.02 0.01 0.02 0.02 0.01 0.00 0.00 0.00 0.00 0.00 0.00 0.00 0.00 0.00 0.00 0.00 0.00 0.00 0.00 0.00 0.00 0.00 0.00 0.01 0.01 0.00 0.01 0.05 0.25 0.47 0.54 0.62
0.01 0.01 0.00 0.00 0.00 0.00 0.00 0.00 0.00 0.00 0.00 0.00 0.00 0.00 0.00 0.00 0.00 0.00 0.00 0.00 0.00 0.00 0.00 0.00 0.00 0.00 0.00 0.00 0.00 0.00 0.00 0.00 0.00 0.00 0.04 0.22 0.53 0.63
0.00 0.00 0.00 0.00 0.00 0.00 0.00 0.00 0.00 0.00 0.00 0.00 0.00 0.00 0.00 0.00 0.00 0.00 0.00 0.00 0.00 0.00 0.00 0.00 0.00 0.00 0.00 0.00 0.00 0.00 0.00 0.00 0.00 0.00 0.00 0.02 0.15 0.57
0.00 0.00 0.00 0.00 0.00 0.00 0.00 0.00 0.00 0.00 0.00 0.00 0.00 0.00 0.00 0.00 0.00 0.00 0.00 0.00 0.00 0.00 0.00 0.00 0.00 0.00 0.00 0.00 0.00 0.00 0.00 0.00 0.00 0.00 0.00 0.00 0.01 0.11
0.00 0.00 0.00 0.00 0.00 0.00 0.00 0.00 0.00 0.00 0.00 0.00 0.00 0.00 0.00 0.00 0.00 0.00 0.00 0.00 0.00 0.00 0.00 0.00 0.00 0.00 0.00 0.00 0.00 0.00 0.00 0.00 0.00 0.00 0.00 0.00 0.00 0.00
0.00 0.00 0.00 0.00 0.00 0.00 0.00 0.00 0.00 0.00 0.01 0.01 0.01 0.00 0.00 0.00 0.00 0.00 0.00 0.00 0.00 0.00 0.00 0.00 0.00 0.00 0.00 0.00 0.00 0.00 0.00 0.00 0.00 0.00 0.00 0.00 0.00 0.00
0.00 0.00 0.00 0.00 0.00 0.00 0.00 0.00 0.00 0.01 0.03 0.04 0.03 0.01 0.01 0.00 0.01 0.01 0.01 0.02 0.02 0.00 0.01 0.01 0.01 0.01 0.00 0.00 0.00 0.00 0.00 0.00 0.00 0.00 0.00 0.00 0.00 0.00
0.00 0.00 0.00 0.00 0.00 0.00 0.00 0.00 0.00 0.01 0.02 0.03 0.05 0.02 0.01 0.01 0.01 0.02 0.03 0.03 0.02 0.01 0.02 0.03 0.02 0.02 0.01 0.00 0.00 0.00 0.00 0.00 0.00 0.00 0.00 0.00 0.00 0.00
0.00 0.00 0.00 0.00 0.00 0.01 0.02 0.03 0.02 0.02 0.01 0.01 0.03 0.03 0.02 0.02 0.03 0.03 0.03 0.04 0.04 0.02 0.01 0.05 0.02 0.03 0.02 0.01 0.00 0.00 0.00 0.00 0.00 0.00 0.00 0.00 0.00 0.00
0.00 0.00 0.01 0.01 0.01 0.02 0.07 0.09 0.05 0.02 0.01 0.00 0.01 0.01 0.01 0.01 0.02 0.09 0.15 0.15 0.10 0.03 0.02 0.04 0.03 0.02 0.01 0.01 0.01 0.00 0.00 0.00 0.00 0.00 0.00 0.00 0.00 0.00
0.01 0.01 0.01 0.01 0.02 0.04 0.12 0.12 0.10 0.03 0.01 0.02 0.01 0.01 0.02 0.03 0.02 0.12 0.15 0.15 0.09 0.07 0.01 0.04 0.04 0.02 0.04 0.01 0.01 0.01 0.01 0.01 0.00 0.00 0.00 0.00 0.00 0.00
0.02 0.02 0.03 0.11 0.08 0.04 0.03 0.03 0.04 0.03 0.03 0.04 0.04 0.03 0.03 0.03 0.02 0.03 0.07 0.13 0.13 0.07 0.00 0.08 0.07 0.03 0.05 0.04 0.03 0.04 0.04 0.03 0.01 0.00 0.00 0.00 0.00 0.01
0.06 0.08 0.10 0.04 0.01 0.00 0.00 0.02 0.04 0.04 0.06 0.07 0.07 0.06 0.07 0.06 0.04 0.04 0.06 0.07 0.08 0.06 0.03 0.12 0.07 0.03 0.05 0.05 0.03 0.03 0.04 0.04 0.03 0.01 0.01 0.01 0.00 0.00
0.11 0.10 0.06 0.02 0.01 0.01 0.02 0.03 0.04 0.06 0.06 0.06 0.05 0.04 0.05 0.04 0.06 0.08 0.07 0.09 0.10 0.06 0.03 0.11 0.12 0.04 0.08 0.09 0.05 0.04 0.06 0.07 0.03 0.02 0.02 0.01 0.01 0.00
0.07 0.07 0.05 0.03 0.02 0.03 0.04 0.04 0.06 0.08 0.07 0.07 0.05 0.04 0.05 0.05 0.07 0.06 0.10 0.10 0.16 0.07 0.03 0.04 0.07 0.09 0.14 0.07 0.04 0.05 0.07 0.10 0.07 0.03 0.02 0.04 0.05 0.02
0.09 0.08 0.05 0.04 0.04 0.03 0.02 0.02 0.03 0.02 0.03 0.04 0.04 0.03 0.03 0.04 0.05 0.04 0.05 0.07 0.11 0.04 0.06 0.07 0.04 0.06 0.08 0.09 0.12 0.05 0.05 0.05 0.05 0.06 0.03 0.03 0.03 0.03
0.09 0.08 0.07 0.07 0.06 0.04 0.03 0.02 0.02 0.02 0.02 0.03 0.04 0.04 0.03 0.04 0.03 0.03 0.03 0.04 0.03 0.04 0.05 0.09 0.12 0.19 0.17 0.10 0.06 0.03 0.06 0.08 0.07 0.06 0.03 0.01 0.02 0.03
0.09 0.09 0.10 0.09 0.07 0.04 0.03 0.02 0.03 0.03 0.04 0.04 0.04 0.04 0.03 0.04 0.03 0.04 0.04 0.08 0.08 0.08 0.10 0.13 0.17 0.18 0.16 0.11 0.11 0.05 0.08 0.08 0.12 0.10 0.04 0.01 0.00 0.04
0.08 0.09 0.09 0.09 0.07 0.04 0.02 0.02 0.02 0.03 0.03 0.03 0.04 0.04 0.02 0.02 0.02 0.02 0.03 0.04 0.04 0.04 0.04 0.05 0.08 0.10 0.17 0.20 0.25 0.14 0.13 0.11 0.13 0.12 0.07 0.03 0.02 0.02
0.08 0.08 0.08 0.07 0.05 0.04 0.03 0.03 0.03 0.04 0.03 0.02 0.03 0.03 0.03 0.03 0.02 0.01 0.01 0.01 0.02 0.02 0.02 0.02 0.02 0.04 0.06 0.12 0.17 0.14 0.11 0.10 0.08 0.10 0.10 0.07 0.05 0.03
0.06 0.06 0.05 0.05 0.04 0.03 0.02 0.02 0.01 0.01 0.02 0.02 0.02 0.03 0.03 0.03 0.03 0.02 0.02 0.01 0.02 0.02 0.02 0.02 0.02 0.01 0.03 0.04 0.08 0.08 0.12 0.12 0.09 0.04 0.04 0.05 0.06 0.07
0.04 0.03 0.02 0.02 0.02 0.01 0.01 0.01 0.01 0.01 0.01 0.02 0.02 0.02 0.03 0.03 0.02 0.02 0.02 0.02 0.02 0.02 0.02 0.01 0.01 0.00 0.01 0.02 0.04 0.05 0.07 0.08 0.09 0.06 0.04 0.03 0.02 0.01

GFSNE_prec_precacc12_030.txt.gz
Total_Precipitation_Accumulation
0.17 0.17 0.17 0.16 0.14 0.12 0.10 0.10 0.14 0.07 0.01 0.00 0.02 0.05 0.09 0.08 0.05 0.02 0.00 0.00 0.00 0.00 0.00 0.00 0.00 0.00 0.00 0.00 0.00 0.00 0.01 0.00 0.00 0.05 0.08 0.15 0.38 0.53
0.08 0.07 0.06 0.05 0.05 0.05 0.04 0.03 0.03 0.04 0.02 0.00 0.00 0.00 0.00 0.00 0.01 0.00 0.00 0.00 0.00 0.00 0.00 0.00 0.00 0.00 0.00 0.00 0.00 0.00 0.01 0.00 0.00 0.00 0.01 0.05 0.21 0.45
0.01 0.01 0.01 0.01 0.00 0.00 0.01 0.01 0.02 0.02 0.01 0.00 0.00 0.00 0.00 0.00 0.00 0.00 0.00 0.00 0.00 0.00 0.00 0.00 0.00 0.00 0.00 0.00 0.00 0.00 0.00 0.00 0.00 0.00 0.00 0.01 0.07 0.28
0.00 0.00 0.00 0.00 0.00 0.00 0.00 0.00 0.00 0.00 0.00 0.00 0.00 0.00 0.00 0.00 0.00 0.00 0.00 0.00 0.00 0.00 0.00 0.00 0.00 0.00 0.00 0.00 0.00 0.00 0.00 0.00 0.00 0.00 0.00 0.00 0.02 0.07
0.00 0.00 0.00 0.00 0.00 0.00 0.00 0.00 0.00 0.00 0.00 0.00 0.00 0.00 0.00 0.00 0.00 0.00 0.00 0.00 0.00 0.00 0.00 0.00 0.00 0.00 0.00 0.00 0.00 0.00 0.00 0.00 0.00 0.00 0.00 0.00 0.00 0.02
0.00 0.00 0.00 0.00 0.00 0.00 0.00 0.00 0.00 0.00 0.00 0.00 0.00 0.00 0.00 0.00 0.00 0.00 0.00 0.00 0.00 0.00 0.00 0.00 0.00 0.00 0.00 0.00 0.00 0.00 0.00 0.00 0.00 0.00 0.00 0.00 0.00 0.00
0.00 0.00 0.00 0.00 0.00 0.00 0.00 0.00 0.00 0.00 0.00 0.01 0.01 0.00 0.00 0.00 0.00 0.00 0.00 0.00 0.00 0.00 0.00 0.00 0.00 0.00 0.00 0.00 0.00 0.00 0.00 0.00 0.00 0.00 0.00 0.00 0.00 0.00
0.00 0.00 0.00 0.00 0.00 0.00 0.00 0.00 0.00 0.01 0.02 0.02 0.02 0.01 0.01 0.00 0.01 0.01 0.02 0.02 0.02 0.01 0.01 0.01 0.01 0.01 0.00 0.00 0.00 0.00 0.00 0.00 0.00 0.00 0.00 0.00 0.00 0.00
0.00 0.00 0.00 0.00 0.00 0.00 0.00 0.00 0.00 0.00 0.01 0.01 0.02 0.02 0.01 0.01 0.01 0.02 0.03 0.03 0.03 0.01 0.02 0.03 0.02 0.03 0.01 0.00 0.00 0.00 0.00 0.00 0.00 0.00 0.00 0.00 0.00 0.00
0.00 0.00 0.00 0.00 0.00 0.00 0.02 0.03 0.02 0.02 0.02 0.02 0.05 0.03 0.02 0.02 0.04 0.05 0.06 0.08 0.06 0.02 0.02 0.05 0.02 0.03 0.02 0.01 0.00 0.00 0.00 0.00 0.00 0.00 0.00 0.00 0.00 0.00
0.00 0.01 0.02 0.02 0.01 0.02 0.08 0.08 0.04 0.02 0.01 0.02 0.02 0.02 0.01 0.01 0.02 0.08 0.13 0.13 0.10 0.03 0.02 0.06 0.04 0.03 0.02 0.01 0.01 0.00 0.00 0.00 0.00 0.00 0.00 0.00 0.00 0.00
0.01 0.01 0.01 0.01 0.05 0.06 0.12 0.11 0.08 0.02 0.02 0.02 0.01 0.01 0.01 0.02 0.02 0.09 0.12 0.14 0.08 0.06 0.01 0.05 0.05 0.04 0.06 0.02 0.01 0.01 0.01 0.01 0.00 0.00 0.00 0.00 0.00 0.00
0.03 0.02 0.03 0.14 0.13 0.05 0.02 0.02 0.04 0.03 0.02 0.02 0.02 0.02 0.03 0.03 0.03 0.03 0.06 0.11 0.10 0.06 0.01 0.08 0.08 0.03 0.06 0.05 0.03 0.04 0.05 0.03 0.02 0.01 0.00 0.00 0.00 0.00
0.05 0.08 0.12 0.05 0.01 0.00 0.01 0.02 0.04 0.03 0.04 0.06 0.07 0.05 0.07 0.07 0.08 0.07 0.07 0.09 0.08 0.06 0.03 0.14 0.12 0.04 0.07 0.07 0.04 0.03 0.05 0.04 0.04 0.02 0.01 0.01 0.00 0.00
0.10 0.10 0.05 0.04 0.02 0.02 0.03 0.03 0.03 0.06 0.09 0.08 0.06 0.04 0.03 0.03 0.04 0.06 0.07 0.08 0.08 0.05 0.03 0.10 0.12 0.04 0.09 0.11 0.06 0.04 0.07 0.08 0.04 0.03 0.03 0.01 0.01 0.00
0.06 0.07 0.09 0.06 0.03 0.05 0.06 0.05 0.07 0.09 0.07 0.07 0.05 0.04 0.04 0.04 0.06 0.06 0.06 0.07 0.12 0.06 0.03 0.04 0.06 0.07 0.12 0.07 0.04 0.05 0.07 0.11 0.08 0.04 0.02 0.04 0.05 0.02
0.08 0.11 0.07 0.05 0.05 0.05 0.04 0.04 0.05 0.03 0.04 0.04 0.05 0.04 0.03 0.03 0.04 0.03 0.03 0.04 0.07 0.05 0.07 0.07 0.04 0.05 0.06 0.07 0.11 0.05 0.05 0.06 0.06 0.07 0.04 0.03 0.03 0.07
0.10 0.10 0.09 0.09 0.08 0.06 0.06 0.04 0.04 0.03 0.03 0.03 0.04 0.04 0.03 0.03 0.03 0.03 0.04 0.05 0.05 0.04 0.04 0.09 0.13 0.13 0.10 0.06 0.04 0.02 0.06 0.08 0.07 0.07 0.05 0.03 0.02 0.04
0.08 0.09 0.10 0.10 0.09 0.06 0.05 0.04 0.04 0.04 0.04 0.03 0.04 0.03 0.03 0.02 0.02 0.02 0.03 0.05 0.06 0.06 0.07 0.11 0.15 0.21 0.22 0.16 0.15 0.06 0.07 0.06 0.10 0.10 0.08 0.05 0.01 0.05
0.07 0.08 0.09 0.10 0.08 0.03 0.02 0.02 0.02 0.03 0.03 0.03 0.04 0.04 0.03 0.03 0.03 0.02 0.02 0.03 0.03 0.03 0.04 0.04 0.04 0.06 0.14 0.18 0.22 0.06 0.08 0.11 0.14 0.12 0.09 0.07 0.02 0.02
0.06 0.06 0.07 0.06 0.04 0.03 0.03 0.02 0.03 0.03 0.03 0.03 0.04 0.04 0.04 0.05 0.03 0.02 0.02 0.02 0.02 0.02 0.02 0.01 0.01 0.02 0.02 0.06 0.14 0.09 0.06 0.07 0.08 0.12 0.12 0.16 0.08 0.04
0.04 0.04 0.03 0.03 0.02 0.02 0.02 0.02 0.01 0.01 0.02 0.02 0.03 0.03 0.05 0.05 0.04 0.03 0.02 0.02 0.02 0.02 0.02 0.02 0.01 0.01 0.02 0.04 0.09 0.06 0.10 0.10 0.08 0.05 0.05 0.09 0.10 0.12
0.01 0.01 0.01 0.01 0.01 0.01 0.01 0.01 0.01 0.01 0.01 0.01 0.02 0.02 0.04 0.03 0.03 0.03 0.02 0.02 0.02 0.01 0.01 0.02 0.01 0.01 0.01 0.01 0.03 0.03 0.04 0.07 0.11 0.06 0.04 0.04 0.04 0.04

GFSNE_prec_precacc12_033.txt.gz
Total_Precipitation_Accumulation
0.07 0.09 0.09 0.13 0.14 0.12 0.11 0.16 0.20 0.10 0.01 0.00 0.02 0.05 0.11 0.13 0.17 0.18 0.18 0.16 0.11 0.05 0.01 0.00 0.00 0.00 0.00 0.00 0.00 0.00 0.00 0.00 0.00 0.00 0.00 0.00 0.01 0.03
0.07 0.06 0.05 0.05 0.06 0.07 0.08 0.06 0.05 0.04 0.02 0.00 0.00 0.00 0.00 0.01 0.02 0.04 0.08 0.06 0.04 0.03 0.01 0.00 0.00 0.00 0.00 0.00 0.00 0.00 0.00 0.00 0.00 0.00 0.00 0.00 0.00 0.01
0.02 0.02 0.01 0.01 0.00 0.01 0.01 0.02 0.03 0.04 0.02 0.00 0.00 0.00 0.00 0.00 0.00 0.00 0.01 0.01 0.01 0.00 0.00 0.00 0.00 0.00 0.00 0.00 0.00 0.00 0.00 0.00 0.00 0.00 0.00 0.00 0.00 0.00
0.00 0.00 0.00 0.00 0.00 0.00 0.00 0.00 0.00 0.00 0.00 0.00 0.00 0.00 0.00 0.00 0.00 0.00 0.00 0.00 0.00 0.00 0.00 0.00 0.00 0.00 0.00 0.00 0.00 0.00 0.00 0.00 0.00 0.00 0.00 0.00 0.00 0.00
0.00 0.00 0.00 0.00 0.00 0.00 0.00 0.00 0.00 0.00 0.00 0.00 0.00 0.00 0.00 0.00 0.00 0.00 0.00 0.00 0.00 0.00 0.00 0.00 0.00 0.00 0.00 0.00 0.00 0.00 0.00 0.00 0.00 0.00 0.00 0.00 0.00 0.00
0.00 0.00 0.00 0.00 0.00 0.00 0.00 0.00 0.00 0.00 0.00 0.00 0.00 0.00 0.00 0.00 0.00 0.00 0.00 0.00 0.00 0.00 0.00 0.00 0.00 0.00 0.00 0.00 0.00 0.00 0.00 0.00 0.00 0.00 0.00 0.00 0.00 0.00
0.00 0.00 0.00 0.00 0.00 0.00 0.00 0.00 0.00 0.00 0.00 0.00 0.00 0.00 0.00 0.00 0.00 0.00 0.00 0.00 0.00 0.00 0.00 0.00 0.00 0.00 0.00 0.00 0.00 0.00 0.00 0.00 0.00 0.00 0.00 0.00 0.00 0.00
0.00 0.00 0.00 0.00 0.00 0.00 0.00 0.00 0.00 0.00 0.01 0.01 0.01 0.01 0.00 0.00 0.00 0.01 0.01 0.02 0.02 0.01 0.01 0.01 0.01 0.01 0.00 0.00 0.00 0.00 0.00 0.00 0.00 0.00 0.00 0.00 0.00 0.00
0.00 0.00 0.00 0.00 0.00 0.00 0.00 0.00 0.00 0.00 0.00 0.01 0.01 0.01 0.00 0.00 0.01 0.01 0.02 0.03 0.02 0.01 0.02 0.03 0.02 0.02 0.01 0.00 0.00 0.00 0.00 0.00 0.00 0.00 0.00 0.00 0.00 0.00
0.00 0.00 0.00 0.00 0.00 0.00 0.01 0.02 0.02 0.02 0.02 0.02 0.05 0.04 0.03 0.03 0.04 0.05 0.07 0.10 0.07 0.02 0.01 0.05 0.02 0.03 0.02 0.01 0.00 0.00 0.00 0.00 0.00 0.00 0.00 0.00 0.00 0.00
0.00 0.01 0.02 0.01 0.01 0.03 0.07 0.06 0.03 0.02 0.01 0.02 0.02 0.02 0.02 0.02 0.03 0.07 0.10 0.10 0.08 0.03 0.02 0.05 0.04 0.03 0.02 0.01 0.01 0.00 0.00 0.00 0.00 0.00 0.00 0.00 0.00 0.00
0.01 0.01 0.01 0.01 0.07 0.10 0.14 0.10 0.06 0.02 0.01 0.02 0.01 0.00 0.01 0.01 0.00 0.04 0.07 0.11 0.06 0.06 0.01 0.05 0.05 0.04 0.06 0.02 0.01 0.01 0.01 0.01 0.00 0.00 0.00 0.00 0.00 0.00
0.02 0.02 0.03 0.14 0.13 0.05 0.04 0.03 0.03 0.03 0.02 0.01 0.01 0.02 0.02 0.02 0.03 0.04 0.09 0.12 0.11 0.08 0.01 0.11 0.09 0.03 0.07 0.04 0.03 0.04 0.05 0.03 0.02 0.01 0.00 0.00 0.00 0.00
0.04 0.07 0.11 0.04 0.04 0.03 0.02 0.04 0.05 0.03 0.04 0.07 0.08 0.06 0.07 0.08 0.08 0.08 0.08 0.09 0.08 0.07 0.03 0.16 0.18 0.05 0.09 0.10 0.05 0.03 0.05 0.05 0.04 0.02 0.01 0.01 0.00 0.00
0.07 0.07 0.05 0.07 0.05 0.03 0.06 0.07 0.04 0.09 0.12 0.11 0.08 0.05 0.04 0.04 0.03 0.05 0.05 0.05 0.05 0.03 0.03 0.07 0.11 0.04 0.09 0.10 0.05 0.04 0.07 0.07 0.04 0.03 0.03 0.01 0.01 0.00
0.04 0.05 0.10 0.08 0.04 0.06 0.08 0.06 0.09 0.11 0.07 0.08 0.05 0.04 0.04 0.04 0.05 0.06 0.04 0.05 0.08 0.04 0.02 0.02 0.03 0.04 0.07 0.05 0.04 0.05 0.07 0.10 0.08 0.04 0.02 0.04 0.05 0.02
0.05 0.10 0.07 0.05 0.05 0.06 0.05 0.05 0.06 0.04 0.04 0.04 0.05 0.04 0.03 0.03 0.04 0.03 0.02 0.03 0.05 0.05 0.06 0.06 0.02 0.02 0.03 0.04 0.08 0.04 0.05 0.05 0.06 0.07 0.04 0.03 0.03 0.07
0.07 0.08 0.08 0.09 0.09 0.08 0.07 0.05 0.04 0.05 0.04 0.03 0.04 0.03 0.02 0.03 0.03 0.03 0.03 0.04 0.04 0.03 0.04 0.08 0.10 0.07 0.06 0.04 0.03 0.02 0.06 0.08 0.07 0.07 0.05 0.05 0.03 0.04
0.06 0.07 0.09 0.10 0.10 0.07 0.05 0.04 0.05 0.06 0.04 0.02 0.04 0.03 0.03 0.02 0.03 0.02 0.03 0.04 0.05 0.04 0.06 0.10 0.11 0.18 0.22 0.16 0.15 0.07 0.07 0.08 0.12 0.09 0.07 0.05 0.05 0.07
0.05 0.07 0.07 0.08 0.07 0.03 0.01 0.02 0.02 0.04 0.03 0.02 0.03 0.03 0.03 0.04 0.04 0.02 0.02 0.03 0.03 0.02 0.04 0.03 0.02 0.05 0.12 0.17 0.22 0.05 0.06 0.08 0.11 0.10 0.08 0.08 0.05 0.05
0.03 0.04 0.05 0.05 0.02 0.01 0.01 0.02 0.02 0.03 0.03 0.02 0.03 0.03 0.04 0.06 0.04 0.03 0.02 0.02 0.02 0.02 0.03 0.01 0.00 0.01 0.02 0.05 0.15 0.07 0.02 0.02 0.04 0.10 0.11 0.16 0.11 0.07
0.02 0.02 0.01 0.01 0.01 0.01 0.01 0.01 0.01 0.01 0.01 0.02 0.02 0.02 0.04 0.05 0.04 0.05 0.03 0.03 0.03 0.02 0.02 0.01 0.01 0.00 0.01 0.04 0.10 0.05 0.05 0.05 0.05 0.04 0.06 0.11 0.14 0.16
0.00 0.00 0.00 0.00 0.00 0.00 0.01 0.01 0.01 0.01 0.01 0.01 0.01 0.02 0.04 0.03 0.02 0.04 0.02 0.02 0.02 0.01 0.01 0.02 0.01 0.01 0.01 0.01 0.04 0.02 0.02 0.06 0.11 0.06 0.04 0.05 0.05 0.05

GFSNE_prec_precacc12_036.txt.gz
Total_Precipitation_Accumulation
0.05 0.06 0.06 0.08 0.08 0.07 0.09 0.14 0.22 0.11 0.01 0.00 0.02 0.05 0.11 0.13 0.17 0.19 0.23 0.25 0.22 0.21 0.21 0.12 0.04 0.02 0.01 0.00 0.00 0.00 0.00 0.00 0.00 0.00 0.00 0.00 0.00 0.00
0.07 0.05 0.04 0.04 0.05 0.07 0.08 0.07 0.07 0.06 0.03 0.00 0.00 0.00 0.00 0.01 0.02 0.04 0.09 0.11 0.09 0.09 0.12 0.14 0.09 0.04 0.02 0.02 0.01 0.00 0.00 0.00 0.00 0.00 0.00 0.00 0.00 0.00
0.01 0.01 0.01 0.01 0.01 0.01 0.01 0.02 0.04 0.04 0.02 0.00 0.00 0.00 0.00 0.00 0.00 0.00 0.01 0.02 0.02 0.02 0.03 0.04 0.06 0.03 0.01 0.00 0.00 0.00 0.00 0.00 0.00 0.00 0.00 0.00 0.00 0.00
0.00 0.00 0.00 0.00 0.00 0.00 0.00 0.00 0.00 0.00 0.00 0.00 0.00 0.00 0.00 0.00 0.00 0.00 0.00 0.00 0.00 0.00 0.00 0.00 0.01 0.01 0.00 0.00 0.00 0.00 0.00 0.00 0.00 0.00 0.00 0.00 0.00 0.00
0.00 0.00 0.00 0.00 0.00 0.00 0.00 0.00 0.00 0.00 0.00 0.00 0.00 0.00 0.00 0.00 0.00 0.00 0.00 0.00 0.00 0.00 0.00 0.00 0.00 0.00 0.00 0.00 0.00 0.00 0.00 0.00 0.00 0.00 0.00 0.00 0.00 0.00
0.00 0.00 0.00 0.00 0.00 0.00 0.00 0.00 0.00 0.00 0.00 0.00 0.00 0.00 0.00 0.00 0.00 0.00 0.00 0.00 0.00 0.00 0.00 0.00 0.00 0.00 0.00 0.00 0.00 0.00 0.00 0.00 0.00 0.00 0.00 0.00 0.00 0.00
0.00 0.00 0.00 0.00 0.00 0.00 0.01 0.00 0.00 0.00 0.00 0.00 0.00 0.00 0.00 0.00 0.00 0.00 0.00 0.00 0.00 0.00 0.00 0.00 0.00 0.00 0.00 0.00 0.00 0.00 0.00 0.00 0.00 0.00 0.00 0.00 0.00 0.00
0.00 0.00 0.00 0.00 0.00 0.00 0.00 0.00 0.00 0.00 0.00 0.00 0.01 0.00 0.00 0.00 0.00 0.00 0.01 0.01 0.01 0.00 0.00 0.01 0.00 0.00 0.00 0.00 0.00 0.00 0.00 0.00 0.00 0.00 0.00 0.00 0.00 0.00
0.00 0.00 0.00 0.00 0.00 0.00 0.00 0.00 0.00 0.00 0.01 0.01 0.02 0.00 0.00 0.00 0.00 0.00 0.01 0.01 0.01 0.01 0.01 0.02 0.02 0.02 0.01 0.00 0.00 0.00 0.00 0.00 0.00 0.00 0.00 0.00 0.00 0.00
0.00 0.00 0.00 0.00 0.00 0.00 0.01 0.01 0.01 0.01 0.01 0.02 0.05 0.03 0.02 0.02 0.04 0.04 0.06 0.09 0.06 0.02 0.01 0.03 0.01 0.02 0.01 0.01 0.00 0.00 0.00 0.00 0.00 0.00 0.00 0.00 0.00 0.00
0.00 0.01 0.01 0.01 0.01 0.04 0.08 0.06 0.02 0.01 0.01 0.02 0.03 0.03 0.03 0.03 0.03 0.08 0.10 0.08 0.05 0.01 0.01 0.04 0.03 0.02 0.01 0.01 0.00 0.00 0.00 0.00 0.00 0.00 0.00 0.00 0.00 0.00
0.01 0.01 0.01 0.01 0.07 0.10 0.11 0.09 0.06 0.01 0.01 0.01 0.00 0.00 0.00 0.00 0.00 0.02 0.03 0.06 0.03 0.05 0.01 0.04 0.03 0.03 0.06 0.01 0.00 0.01 0.01 0.00 0.00 0.00 0.00 0.00 0.00 0.00
0.02 0.01 0.02 0.12 0.13 0.06 0.05 0.05 0.04 0.04 0.03 0.02 0.01 0.01 0.02 0.03 0.04 0.06 0.11 0.17 0.13 0.08 0.01 0.09 0.08 0.02 0.05 0.03 0.02 0.03 0.04 0.03 0.02 0.01 0.00 0.00 0.00 0.00
0.03 0.04 0.09 0.06 0.05 0.04 0.04 0.07 0.07 0.05 0.05 0.08 0.09 0.07 0.09 0.10 0.09 0.09 0.08 0.08 0.08 0.07 0.02 0.13 0.19 0.04 0.07 0.08 0.04 0.02 0.03 0.04 0.03 0.02 0.01 0.01 0.00 0.00
0.04 0.06 0.06 0.08 0.05 0.03 0.07 0.08 0.05 0.10 0.13 0.12 0.10 0.07 0.06 0.06 0.05 0.05 0.04 0.04 0.03 0.02 0.01 0.04 0.09 0.04 0.07 0.08 0.04 0.03 0.04 0.06 0.04 0.02 0.01 0.00 0.00 0.00
0.02 0.02 0.09 0.07 0.04 0.07 0.09 0.07 0.11 0.12 0.08 0.08 0.06 0.04 0.04 0.04 0.04 0.05 0.03 0.03 0.06 0.02 0.01 0.01 0.00 0.01 0.03 0.02 0.02 0.02 0.03 0.06 0.05 0.03 0.01 0.02 0.04 0.02
0.03 0.07 0.06 0.03 0.05 0.06 0.06 0.06 0.07 0.04 0.04 0.04 0.05 0.04 0.02 0.02 0.04 0.03 0.02 0.02 0.03 0.03 0.04 0.04 0.00 0.01 0.01 0.03 0.06 0.03 0.03 0.03 0.04 0.05 0.03 0.03 0.03 0.07
0.05 0.06 0.05 0.06 0.08 0.08 0.08 0.06 0.05 0.06 0.05 0.04 0.04 0.03 0.02 0.02 0.02 0.02 0.03 0.04 0.03 0.02 0.03 0.06 0.08 0.04 0.03 0.02 0.06 0.02 0.04 0.06 0.05 0.06 0.06 0.06 0.03 0.03
0.03 0.04 0.06 0.07 0.08 0.07 0.05 0.04 0.05 0.07 0.04 0.03 0.05 0.04 0.03 0.03 0.03 0.01 0.01 0.03 0.04 0.04 0.06 0.08 0.09 0.15 0.18 0.12 0.12 0.07 0.05 0.06 0.10 0.08 0.07 0.06 0.05 0.06
0.02 0.04 0.05 0.06 0.05 0.02 0.01 0.01 0.02 0.03 0.02 0.02 0.04 0.04 0.04 0.05 0.04 0.02 0.01 0.02 0.02 0.01 0.04 0.03 0.01 0.02 0.06 0.10 0.17 0.05 0.06 0.07 0.07 0.07 0.07 0.07 0.05 0.05
0.01 0.02 0.03 0.03 0.01 0.00 0.01 0.01 0.02 0.02 0.02 0.02 0.02 0.03 0.04 0.06 0.04 0.03 0.02 0.02 0.02 0.02 0.02 0.01 0.00 0.00 0.01 0.04 0.14 0.06 0.01 0.01 0.02 0.06 0.08 0.14 0.10 0.07
0.00 0.00 0.00 0.00 0.00 0.00 0.01 0.01 0.00 0.01 0.01 0.01 0.01 0.02 0.03 0.04 0.04 0.05 0.02 0.02 0.02 0.01 0.02 0.01 0.00 0.00 0.01 0.03 0.08 0.03 0.03 0.02 0.02 0.03 0.05 0.11 0.16 0.17
0.00 0.00 0.00 0.00 0.00 0.00 0.01 0.00 0.00 0.00 0.00 0.00 0.01 0.01 0.03 0.02 0.02 0.03 0.02 0.01 0.01 0.01 0.01 0.02 0.01 0.01 0.00 0.01 0.04 0.02 0.01 0.03 0.08 0.04 0.03 0.05 0.06 0.07

GFSNE_prec_precacc12_039.txt.gz
Total_Precipitation_Accumulation
0.03 0.05 0.05 0.07 0.07 0.06 0.08 0.13 0.20 0.10 0.01 0.00 0.01 0.04 0.10 0.13 0.17 0.19 0.23 0.25 0.23 0.23 0.26 0.21 0.12 0.06 0.07 0.08 0.05 0.01 0.00 0.00 0.00 0.00 0.00 0.00 0.00 0.00
0.03 0.03 0.03 0.03 0.04 0.06 0.07 0.06 0.06 0.05 0.02 0.00 0.00 0.00 0.00 0.01 0.02 0.04 0.09 0.11 0.09 0.10 0.15 0.21 0.22 0.19 0.15 0.13 0.08 0.03 0.01 0.00 0.00 0.00 0.00 0.00 0.00 0.00
0.01 0.01 0.01 0.01 0.00 0.00 0.01 0.02 0.04 0.04 0.02 0.00 0.00 0.00 0.00 0.00 0.00 0.00 0.01 0.02 0.02 0.02 0.03 0.07 0.14 0.17 0.16 0.11 0.07 0.05 0.03 0.01 0.00 0.00 0.00 0.00 0.00 0.00
0.00 0.00 0.00 0.00 0.00 0.00 0.00 0.00 0.00 0.00 0.00 0.00 0.00 0.00 0.00 0.00 0.00 0.00 0.00 0.00 0.00 0.00 0.00 0.01 0.02 0.05 0.07 0.03 0.02 0.02 0.02 0.02 0.01 0.00 0.00 0.00 0.00 0.00
0.00 0.00 0.00 0.00 0.00 0.00 0.00 0.00 0.00 0.00 0.00 0.00 0.00 0.00 0.00 0.00 0.00 0.00 0.00 0.00 0.00 0.00 0.00 0.00 0.00 0.00 0.01 0.01 0.00 0.00 0.00 0.01 0.00 0.00 0.00 0.00 0.00 0.00
0.00 0.00 0.00 0.00 0.00 0.00 0.00 0.00 0.00 0.00 0.00 0.00 0.00 0.00 0.00 0.00 0.00 0.00 0.00 0.00 0.00 0.00 0.00 0.00 0.00 0.00 0.00 0.00 0.00 0.00 0.00 0.00 0.00 0.00 0.00 0.00 0.00 0.00
0.00 0.00 0.00 0.00 0.00 0.00 0.01 0.00 0.00 0.00 0.00 0.00 0.00 0.00 0.00 0.00 0.00 0.00 0.00 0.00 0.00 0.00 0.00 0.00 0.00 0.00 0.00 0.00 0.00 0.00 0.00 0.00 0.00 0.00 0.00 0.00 0.00 0.00
0.00 0.00 0.00 0.00 0.00 0.00 0.00 0.00 0.00 0.01 0.01 0.01 0.01 0.00 0.00 0.00 0.00 0.00 0.00 0.00 0.00 0.00 0.00 0.00 0.00 0.00 0.00 0.00 0.00 0.00 0.00 0.00 0.00 0.00 0.00 0.00 0.00 0.00
0.00 0.00 0.00 0.00 0.00 0.00 0.00 0.00 0.00 0.00 0.01 0.01 0.02 0.01 0.00 0.00 0.00 0.00 0.00 0.00 0.00 0.00 0.00 0.00 0.00 0.00 0.00 0.00 0.00 0.00 0.00 0.00 0.00 0.00 0.00 0.00 0.00 0.00
0.00 0.00 0.00 0.00 0.00 0.00 0.01 0.02 0.01 0.00 0.01 0.01 0.03 0.02 0.02 0.01 0.02 0.03 0.05 0.08 0.05 0.01 0.00 0.02 0.00 0.00 0.00 0.00 0.00 0.00 0.00 0.00 0.00 0.00 0.00 0.00 0.00 0.00
0.00 0.00 0.01 0.01 0.01 0.03 0.07 0.04 0.01 0.00 0.00 0.02 0.02 0.03 0.03 0.04 0.05 0.09 0.08 0.05 0.03 0.00 0.00 0.02 0.01 0.01 0.00 0.00 0.00 0.00 0.00 0.00 0.00 0.00 0.00 0.00 0.00 0.00
0.00 0.00 0.00 0.01 0.06 0.10 0.12 0.09 0.05 0.00 0.00 0.01 0.00 0.00 0.00 0.00 0.00 0.01 0.01 0.03 0.01 0.03 0.00 0.02 0.01 0.02 0.03 0.00 0.00 0.00 0.00 0.00 0.00 0.00 0.00 0.00 0.00 0.00
0.01 0.00 0.00 0.05 0.11 0.06 0.06 0.07 0.08 0.05 0.03 0.02 0.02 0.02 0.03 0.03 0.04 0.06 0.11 0.16 0.11 0.08 0.00 0.05 0.03 0.00 0.03 0.01 0.00 0.00 0.01 0.00 0.00 0.00 0.00 0.00 0.00 0.00
0.01 0.02 0.06 0.05 0.05 0.04 0.04 0.09 0.08 0.05 0.05 0.08 0.10 0.08 0.09 0.10 0.10 0.09 0.07 0.07 0.05 0.04 0.00 0.09 0.18 0.03 0.06 0.06 0.02 0.00 0.01 0.01 0.01 0.01 0.00 0.00 0.00 0.00
0.02 0.04 0.05 0.07 0.04 0.03 0.07 0.09 0.06 0.09 0.12 0.11 0.09 0.08 0.06 0.07 0.06 0.07 0.07 0.06 0.02 0.01 0.00 0.03 0.07 0.03 0.05 0.05 0.02 0.01 0.01 0.01 0.02 0.01 0.00 0.00 0.00 0.00
0.00 0.01 0.06 0.05 0.02 0.05 0.07 0.06 0.10 0.11 0.08 0.09 0.07 0.05 0.04 0.03 0.04 0.07 0.03 0.02 0.02 0.01 0.00 0.00 0.01 0.02 0.01 0.01 0.01 0.00 0.00 0.00 0.01 0.02 0.00 0.00 0.01 0.01
0.01 0.04 0.03 0.01 0.02 0.03 0.04 0.05 0.07 0.05 0.04 0.04 0.05 0.04 0.02 0.02 0.03 0.03 0.02 0.01 0.01 0.01 0.02 0.01 0.00 0.00 0.01 0.03 0.06 0.01 0.01 0.01 0.00 0.01 0.01 0.00 0.00 0.04
0.02 0.03 0.03 0.03 0.05 0.06 0.06 0.04 0.04 0.05 0.04 0.04 0.04 0.03 0.02 0.03 0.03 0.00 0.01 0.02 0.02 0.02 0.01 0.02 0.04 0.02 0.02 0.02 0.07 0.02 0.02 0.02 0.01 0.02 0.05 0.06 0.01 0.01
0.02 0.02 0.03 0.04 0.05 0.05 0.03 0.03 0.04 0.05 0.03 0.03 0.05 0.04 0.04 0.03 0.04 0.01 0.00 0.00 0.01 0.02 0.05 0.05 0.05 0.10 0.11 0.07 0.07 0.06 0.04 0.04 0.05 0.03 0.06 0.07 0.05 0.03
0.01 0.02 0.03 0.04 0.03 0.01 0.01 0.01 0.01 0.02 0.01 0.01 0.03 0.04 0.04 0.05 0.04 0.02 0.01 0.02 0.01 0.00 0.02 0.01 0.00 0.00 0.01 0.02 0.06 0.03 0.05 0.05 0.04 0.02 0.03 0.06 0.05 0.04
0.00 0.01 0.02 0.02 0.01 0.00 0.00 0.00 0.01 0.01 0.01 0.01 0.01 0.02 0.03 0.05 0.04 0.03 0.01 0.02 0.01 0.01 0.01 0.00 0.00 0.00 0.00 0.01 0.09 0.04 0.01 0.01 0.01 0.03 0.03 0.10 0.07 0.05
0.00 0.00 0.00 0.00 0.00 0.00 0.00 0.00 0.00 0.00 0.00 0.00 0.00 0.01 0.02 0.03 0.03 0.04 0.02 0.01 0.01 0.00 0.01 0.00 0.00 0.00 0.00 0.01 0.05 0.01 0.01 0.01 0.01 0.01 0.03 0.08 0.12 0.11
0.00 0.00 0.00 0.00 0.00 0.00 0.00 0.00 0.00 0.00 0.00 0.00 0.00 0.00 0.01 0.01 0.01 0.02 0.01 0.01 0.01 0.00 0.00 0.01 0.00 0.00 0.00 0.00 0.04 0.01 0.00 0.01 0.04 0.01 0.01 0.03 0.05 0.06

GFSNE_prec_precacc12_042.txt.gz
Total_Precipitation_Accumulation
0.00 0.02 0.02 0.05 0.07 0.05 0.06 0.11 0.16 0.08 0.01 0.00 0.00 0.00 0.01 0.05 0.12 0.17 0.22 0.25 0.23 0.23 0.26 0.21 0.13 0.08 0.14 0.26 0.28 0.20 0.14 0.01 0.00 0.00 0.00 0.00 0.00 0.00
0.01 0.01 0.01 0.01 0.01 0.02 0.05 0.04 0.05 0.05 0.02 0.00 0.00 0.00 0.00 0.00 0.01 0.04 0.09 0.11 0.09 0.10 0.15 0.21 0.23 0.22 0.19 0.20 0.20 0.21 0.14 0.03 0.00 0.00 0.00 0.00 0.00 0.00
0.00 0.00 0.01 0.00 0.00 0.00 0.00 0.01 0.02 0.02 0.01 0.00 0.00 0.00 0.00 0.00 0.00 0.00 0.01 0.02 0.02 0.02 0.03 0.07 0.14 0.18 0.21 0.19 0.16 0.12 0.12 0.09 0.05 0.01 0.00 0.00 0.00 0.00
0.00 0.00 0.00 0.00 0.00 0.00 0.00 0.00 0.00 0.00 0.00 0.00 0.00 0.00 0.00 0.00 0.00 0.00 0.00 0.00 0.00 0.00 0.00 0.01 0.02 0.05 0.09 0.12 0.12 0.11 0.11 0.08 0.05 0.04 0.01 0.00 0.00 0.00
0.00 0.00 0.00 0.00 0.00 0.00 0.00 0.00 0.00 0.00 0.00 0.01 0.00 0.00 0.00 0.00 0.00 0.00 0.00 0.00 0.00 0.00 0.00 0.00 0.00 0.00 0.01 0.02 0.02 0.03 0.02 0.03 0.05 0.03 0.01 0.01 0.01 0.00
0.00 0.00 0.00 0.00 0.00 0.00 0.00 0.00 0.00 0.00 0.01 0.01 0.00 0.00 0.00 0.00 0.00 0.00 0.00 0.00 0.00 0.00 0.00 0.00 0.00 0.00 0.00 0.00 0.00 0.00 0.00 0.01 0.01 0.03 0.02 0.01 0.00 0.00
0.00 0.00 0.00 0.00 0.00 0.01 0.01 0.00 0.00 0.01 0.01 0.01 0.00 0.00 0.00 0.00 0.00 0.00 0.00 0.00 0.00 0.00 0.00 0.00 0.00 0.00 0.00 0.00 0.00 0.00 0.00 0.00 0.00 0.00 0.00 0.00 0.00 0.00
0.00 0.00 0.00 0.00 0.00 0.00 0.00 0.00 0.01 0.01 0.02 0.02 0.01 0.01 0.00 0.00 0.00 0.00 0.00 0.00 0.00 0.00 0.00 0.00 0.00 0.00 0.00 0.00 0.00 0.00 0.00 0.00 0.00 0.00 0.00 0.00 0.00 0.00
0.00 0.00 0.00 0.00 0.00 0.00 0.00 0.00 0.00 0.00 0.02 0.04 0.06 0.02 0.01 0.00 0.00 0.00 0.00 0.00 0.00 0.00 0.00 0.00 0.00 0.00 0.00 0.00 0.00 0.00 0.00 0.00 0.00 0.00 0.00 0.00 0.00 0.00
0.00 0.00 0.00 0.00 0.00 0.00 0.01 0.01 0.00 0.00 0.00 0.01 0.02 0.01 0.01 0.01 0.01 0.02 0.03 0.05 0.03 0.01 0.00 0.02 0.00 0.00 0.00 0.00 0.00 0.00 0.00 0.00 0.00 0.00 0.00 0.00 0.00 0.00
0.00 0.00 0.00 0.00 0.00 0.03 0.08 0.05 0.01 0.00 0.00 0.00 0.02 0.03 0.03 0.04 0.06 0.12 0.13 0.09 0.03 0.00 0.00 0.01 0.00 0.00 0.00 0.00 0.00 0.00 0.00 0.00 0.00 0.00 0.00 0.00 0.00 0.00
0.00 0.00 0.00 0.00 0.04 0.10 0.11 0.07 0.04 0.01 0.00 0.00 0.00 0.00 0.00 0.00 0.00 0.01 0.01 0.03 0.01 0.03 0.00 0.01 0.00 0.00 0.01 0.00 0.00 0.00 0.00 0.00 0.00 0.00 0.00 0.00 0.00 0.00
0.00 0.00 0.00 0.02 0.05 0.05 0.06 0.08 0.11 0.06 0.03 0.03 0.03 0.04 0.05 0.06 0.06 0.07 0.11 0.15 0.10 0.07 0.00 0.04 0.02 0.00 0.01 0.00 0.00 0.00 0.00 0.00 0.00 0.00 0.00 0.00 0.00 0.00
0.00 0.00 0.03 0.05 0.05 0.04 0.04 0.09 0.08 0.05 0.05 0.07 0.08 0.07 0.09 0.09 0.10 0.12 0.10 0.07 0.04 0.03 0.01 0.10 0.15 0.02 0.04 0.04 0.00 0.00 0.00 0.00 0.00 0.00 0.00 0.00 0.00 0.00
0.00 0.02 0.04 0.04 0.03 0.02 0.05 0.08 0.05 0.07 0.08 0.08 0.07 0.06 0.07 0.07 0.06 0.07 0.11 0.11 0.05 0.03 0.04 0.09 0.08 0.04 0.06 0.04 0.01 0.00 0.00 0.00 0.00 0.00 0.00 0.00 0.00 0.00
0.00 0.00 0.03 0.02 0.01 0.02 0.03 0.04 0.08 0.08 0.07 0.08 0.06 0.04 0.04 0.03 0.04 0.06 0.05 0.06 0.05 0.03 0.02 0.02 0.02 0.07 0.05 0.02 0.02 0.00 0.00 0.00 0.00 0.00 0.00 0.00 0.00 0.00
0.00 0.01 0.01 0.00 0.01 0.01 0.02 0.03 0.04 0.03 0.03 0.04 0.04 0.03 0.02 0.03 0.05 0.04 0.02 0.01 0.01 0.01 0.02 0.01 0.00 0.02 0.04 0.05 0.07 0.01 0.01 0.01 0.00 0.00 0.00 0.00 0.00 0.00
0.00 0.01 0.01 0.01 0.02 0.03 0.03 0.02 0.02 0.03 0.03 0.04 0.04 0.03 0.03 0.04 0.04 0.01 0.01 0.00 0.01 0.02 0.02 0.01 0.00 0.01 0.03 0.03 0.07 0.04 0.03 0.02 0.00 0.00 0.02 0.04 0.01 0.00
0.00 0.01 0.01 0.02 0.03 0.02 0.01 0.01 0.02 0.04 0.02 0.02 0.04 0.04 0.04 0.03 0.04 0.01 0.00 0.00 0.00 0.02 0.04 0.03 0.01 0.01 0.02 0.01 0.01 0.03 0.03 0.03 0.03 0.01 0.01 0.03 0.05 0.02
0.00 0.01 0.01 0.02 0.01 0.00 0.00 0.00 0.00 0.01 0.00 0.00 0.02 0.03 0.03 0.05 0.03 0.01 0.01 0.01 0.01 0.00 0.01 0.00 0.00 0.01 0.01 0.01 0.03 0.01 0.01 0.01 0.02 0.01 0.01 0.02 0.04 0.03
0.00 0.00 0.01 0.01 0.00 0.00 0.00 0.00 0.00 0.00 0.00 0.00 0.00 0.01 0.02 0.03 0.03 0.03 0.01 0.01 0.01 0.00 0.00 0.00 0.00 0.00 0.01 0.02 0.04 0.02 0.01 0.00 0.00 0.01 0.01 0.02 0.03 0.04
0.00 0.00 0.00 0.00 0.00 0.00 0.00 0.00 0.00 0.00 0.00 0.00 0.00 0.00 0.00 0.02 0.02 0.03 0.01 0.00 0.00 0.00 0.00 0.00 0.00 0.00 0.01 0.01 0.03 0.01 0.00 0.00 0.00 0.00 0.01 0.05 0.08 0.07
0.00 0.00 0.00 0.00 0.00 0.00 0.00 0.00 0.00 0.00 0.00 0.00 0.00 0.00 0.00 0.00 0.00 0.01 0.01 0.00 0.00 0.00 0.00 0.00 0.00 0.00 0.01 0.01 0.03 0.02 0.00 0.01 0.01 0.00 0.00 0.01 0.03 0.04

GFSNE_prec_precacc12_045.txt.gz
Total_Precipitation_Accumulation
0.00 0.01 0.01 0.02 0.01 0.02 0.03 0.05 0.11 0.08 0.01 0.00 0.00 0.00 0.00 0.00 0.00 0.02 0.04 0.09 0.13 0.18 0.24 0.21 0.13 0.08 0.14 0.27 0.30 0.23 0.20 0.14 0.06 0.03 0.03 0.01 0.00 0.00
0.01 0.01 0.01 0.00 0.00 0.01 0.01 0.01 0.03 0.06 0.02 0.00 0.00 0.00 0.00 0.00 0.00 0.00 0.01 0.05 0.05 0.07 0.13 0.21 0.23 0.22 0.19 0.21 0.23 0.26 0.26 0.24 0.12 0.04 0.00 0.00 0.00 0.00
0.00 0.00 0.00 0.00 0.00 0.00 0.00 0.00 0.00 0.00 0.00 0.00 0.00 0.00 0.00 0.00 0.00 0.00 0.00 0.00 0.01 0.01 0.03 0.07 0.14 0.18 0.21 0.20 0.17 0.18 0.25 0.25 0.16 0.06 0.00 0.00 0.00 0.00
0.00 0.00 0.00 0.00 0.00 0.00 0.00 0.00 0.00 0.00 0.00 0.00 0.00 0.00 0.00 0.00 0.00 0.00 0.00 0.00 0.00 0.00 0.00 0.01 0.02 0.05 0.09 0.12 0.14 0.16 0.21 0.26 0.20 0.10 0.04 0.01 0.00 0.00
0.00 0.00 0.00 0.00 0.00 0.00 0.00 0.00 0.00 0.00 0.00 0.02 0.01 0.00 0.00 0.00 0.00 0.00 0.00 0.00 0.00 0.00 0.00 0.00 0.00 0.00 0.01 0.02 0.02 0.05 0.07 0.12 0.14 0.07 0.03 0.02 0.01 0.00
0.00 0.00 0.00 0.00 0.00 0.00 0.00 0.00 0.00 0.01 0.01 0.01 0.01 0.00 0.00 0.00 0.00 0.00 0.00 0.00 0.00 0.00 0.00 0.00 0.00 0.00 0.00 0.00 0.00 0.00 0.00 0.02 0.04 0.06 0.03 0.01 0.01 0.01
0.00 0.00 0.00 0.00 0.00 0.00 0.01 0.00 0.01 0.01 0.01 0.01 0.01 0.00 0.00 0.00 0.00 0.00 0.00 0.00 0.00 0.00 0.00 0.00 0.00 0.00 0.00 0.00 0.00 0.00 0.01 0.01 0.00 0.01 0.00 0.00 0.01 0.01
0.00 0.00 0.00 0.00 0.00 0.00 0.00 0.00 0.01 0.02 0.03 0.03 0.03 0.02 0.01 0.00 0.00 0.01 0.01 0.01 0.00 0.00 0.00 0.00 0.00 0.00 0.00 0.00 0.00 0.00 0.00 0.00 0.00 0.00 0.00 0.00 0.00 0.00
0.00 0.00 0.00 0.00 0.00 0.00 0.00 0.00 0.00 0.01 0.03 0.07 0.10 0.04 0.02 0.01 0.02 0.02 0.01 0.01 0.01 0.00 0.00 0.00 0.00 0.00 0.00 0.00 0.00 0.00 0.00 0.00 0.00 0.00 0.00 0.00 0.00 0.00
0.00 0.00 0.00 0.00 0.00 0.01 0.02 0.03 0.01 0.00 0.00 0.01 0.04 0.02 0.01 0.01 0.02 0.02 0.02 0.03 0.02 0.01 0.01 0.02 0.00 0.00 0.00 0.00 0.00 0.00 0.00 0.00 0.00 0.00 0.00 0.00 0.00 0.00
0.00 0.00 0.00 0.00 0.00 0.03 0.10 0.06 0.01 0.00 0.00 0.00 0.02 0.03 0.04 0.05 0.07 0.15 0.13 0.11 0.05 0.01 0.00 0.01 0.00 0.00 0.00 0.00 0.00 0.00 0.00 0.00 0.00 0.00 0.00 0.00 0.00 0.00
0.00 0.00 0.00 0.01 0.02 0.05 0.08 0.07 0.04 0.02 0.00 0.00 0.00 0.01 0.01 0.02 0.01 0.03 0.02 0.03 0.03 0.03 0.00 0.01 0.00 0.00 0.01 0.00 0.00 0.00 0.00 0.00 0.00 0.00 0.00 0.00 0.00 0.00
0.00 0.00 0.00 0.01 0.04 0.04 0.05 0.08 0.13 0.06 0.03 0.04 0.04 0.04 0.06 0.08 0.10 0.11 0.10 0.12 0.06 0.04 0.00 0.02 0.02 0.01 0.01 0.00 0.00 0.00 0.00 0.00 0.00 0.00 0.00 0.00 0.00 0.00
0.00 0.00 0.02 0.04 0.02 0.02 0.03 0.08 0.07 0.03 0.04 0.06 0.07 0.06 0.08 0.09 0.10 0.13 0.13 0.10 0.04 0.02 0.02 0.10 0.12 0.04 0.04 0.03 0.00 0.00 0.00 0.00 0.00 0.00 0.00 0.00 0.00 0.00
0.00 0.02 0.03 0.01 0.00 0.01 0.03 0.04 0.03 0.04 0.04 0.04 0.05 0.05 0.05 0.06 0.06 0.06 0.11 0.16 0.08 0.05 0.07 0.15 0.11 0.06 0.07 0.05 0.03 0.01 0.00 0.00 0.00 0.00 0.00 0.00 0.00 0.00
0.00 0.00 0.00 0.00 0.00 0.01 0.02 0.02 0.04 0.05 0.06 0.07 0.06 0.04 0.03 0.03 0.05 0.06 0.05 0.09 0.12 0.09 0.08 0.07 0.05 0.11 0.11 0.04 0.05 0.02 0.01 0.00 0.00 0.00 0.00 0.00 0.00 0.00
0.00 0.00 0.00 0.00 0.00 0.01 0.01 0.02 0.03 0.02 0.02 0.04 0.04 0.03 0.03 0.04 0.06 0.05 0.03 0.02 0.02 0.03 0.04 0.02 0.01 0.04 0.07 0.09 0.10 0.03 0.03 0.02 0.00 0.00 0.00 0.00 0.00 0.00
0.00 0.00 0.00 0.00 0.01 0.01 0.01 0.01 0.01 0.02 0.01 0.02 0.03 0.04 0.04 0.04 0.04 0.02 0.01 0.01 0.01 0.03 0.04 0.02 0.00 0.02 0.03 0.03 0.06 0.04 0.03 0.02 0.00 0.00 0.01 0.03 0.00 0.00
0.00 0.00 0.00 0.01 0.01 0.01 0.00 0.00 0.01 0.01 0.01 0.02 0.03 0.04 0.04 0.03 0.03 0.01 0.00 0.00 0.00 0.02 0.03 0.01 0.00 0.00 0.00 0.00 0.01 0.01 0.01 0.01 0.01 0.01 0.01 0.02 0.01 0.00
0.00 0.00 0.01 0.01 0.00 0.00 0.00 0.00 0.00 0.00 0.00 0.00 0.02 0.02 0.02 0.03 0.03 0.02 0.01 0.01 0.00 0.00 0.00 0.00 0.00 0.01 0.01 0.01 0.02 0.01 0.01 0.01 0.00 0.01 0.01 0.01 0.01 0.01
0.00 0.00 0.00 0.00 0.00 0.00 0.00 0.00 0.00 0.00 0.00 0.00 0.00 0.01 0.01 0.01 0.02 0.02 0.01 0.01 0.00 0.00 0.00 0.00 0.00 0.00 0.01 0.02 0.02 0.02 0.02 0.01 0.01 0.01 0.00 0.01 0.00 0.01
0.00 0.00 0.00 0.00 0.00 0.00 0.00 0.00 0.00 0.00 0.00 0.00 0.00 0.00 0.00 0.01 0.01 0.01 0.01 0.00 0.00 0.00 0.00 0.00 0.00 0.01 0.02 0.02 0.02 0.02 0.01 0.01 0.00 0.00 0.00 0.03 0.04 0.04
0.00 0.00 0.00 0.00 0.00 0.00 0.00 0.00 0.00 0.00 0.00 0.00 0.00 0.00 0.00 0.00 0.00 0.00 0.00 0.00 0.00 0.00 0.00 0.00 0.00 0.01 0.01 0.01 0.03 0.03 0.00 0.01 0.00 0.00 0.00 0.00 0.02 0.03

GFSNE_prec_precacc12_048.txt.gz
Total_Precipitation_Accumulation
0.04 0.04 0.02 0.02 0.02 0.01 0.02 0.03 0.07 0.06 0.01 0.00 0.00 0.00 0.00 0.00 0.00 0.00 0.00 0.00 0.01 0.02 0.05 0.09 0.09 0.05 0.13 0.26 0.30 0.23 0.21 0.16 0.09 0.05 0.08 0.11 0.10 0.06
0.01 0.00 0.00 0.00 0.00 0.00 0.00 0.00 0.01 0.04 0.01 0.00 0.00 0.00 0.00 0.00 0.00 0.00 0.00 0.00 0.00 0.01 0.03 0.07 0.14 0.18 0.16 0.19 0.22 0.26 0.28 0.27 0.17 0.11 0.07 0.04 0.05 0.09
0.00 0.00 0.00 0.00 0.00 0.00 0.00 0.00 0.00 0.00 0.00 0.00 0.00 0.00 0.00 0.00 0.00 0.00 0.00 0.00 0.00 0.00 0.01 0.03 0.08 0.16 0.20 0.19 0.17 0.18 0.26 0.30 0.24 0.13 0.10 0.10 0.04 0.01
0.00 0.00 0.00 0.00 0.00 0.00 0.00 0.00 0.00 0.00 0.00 0.00 0.00 0.00 0.00 0.00 0.00 0.00 0.00 0.00 0.00 0.00 0.00 0.00 0.01 0.04 0.09 0.12 0.14 0.16 0.21 0.28 0.32 0.21 0.08 0.07 0.05 0.00
0.00 0.00 0.00 0.00 0.00 0.00 0.00 0.00 0.00 0.00 0.01 0.02 0.01 0.00 0.00 0.00 0.00 0.00 0.00 0.00 0.00 0.00 0.00 0.00 0.00 0.00 0.01 0.01 0.03 0.05 0.07 0.12 0.21 0.25 0.18 0.07 0.04 0.01
0.00 0.00 0.00 0.00 0.00 0.00 0.00 0.00 0.01 0.01 0.01 0.02 0.01 0.00 0.00 0.00 0.00 0.00 0.00 0.00 0.00 0.00 0.00 0.00 0.00 0.00 0.00 0.00 0.00 0.00 0.01 0.02 0.06 0.15 0.19 0.16 0.07 0.03
0.00 0.00 0.00 0.00 0.00 0.00 0.01 0.00 0.01 0.02 0.01 0.01 0.01 0.01 0.01 0.00 0.01 0.01 0.01 0.01 0.00 0.00 0.00 0.00 0.00 0.00 0.00 0.00 0.00 0.00 0.01 0.01 0.01 0.03 0.07 0.08 0.11 0.09
0.00 0.00 0.00 0.00 0.00 0.00 0.00 0.00 0.01 0.02 0.03 0.04 0.03 0.03 0.01 0.01 0.01 0.02 0.02 0.02 0.01 0.01 0.02 0.01 0.01 0.00 0.00 0.00 0.00 0.00 0.00 0.00 0.01 0.01 0.01 0.03 0.04 0.04
0.00 0.00 0.00 0.00 0.00 0.00 0.00 0.00 0.00 0.01 0.03 0.09 0.12 0.06 0.04 0.03 0.03 0.03 0.02 0.03 0.02 0.01 0.02 0.03 0.01 0.01 0.00 0.00 0.00 0.00 0.00 0.00 0.00 0.00 0.00 0.00 0.01 0.00
0.00 0.00 0.00 0.00 0.00 0.01 0.02 0.05 0.02 0.00 0.00 0.01 0.05 0.05 0.03 0.03 0.05 0.06 0.05 0.05 0.04 0.01 0.02 0.04 0.01 0.01 0.01 0.00 0.00 0.00 0.00 0.00 0.00 0.00 0.00 0.00 0.00 0.00
0.00 0.00 0.00 0.00 0.00 0.02 0.08 0.05 0.02 0.00 0.00 0.00 0.02 0.03 0.03 0.05 0.09 0.16 0.15 0.15 0.09 0.03 0.03 0.05 0.02 0.01 0.01 0.00 0.00 0.00 0.00 0.00 0.00 0.00 0.00 0.00 0.00 0.00
0.00 0.00 0.00 0.00 0.02 0.04 0.07 0.06 0.05 0.02 0.01 0.01 0.01 0.01 0.02 0.03 0.03 0.07 0.05 0.08 0.05 0.05 0.03 0.05 0.01 0.01 0.02 0.02 0.01 0.01 0.00 0.00 0.00 0.00 0.00 0.00 0.00 0.00
0.00 0.00 0.00 0.01 0.02 0.02 0.03 0.06 0.13 0.05 0.02 0.03 0.03 0.04 0.05 0.07 0.09 0.12 0.11 0.10 0.06 0.03 0.01 0.02 0.02 0.03 0.04 0.06 0.04 0.02 0.02 0.01 0.00 0.00 0.00 0.00 0.00 0.00
0.00 0.00 0.01 0.02 0.01 0.01 0.02 0.04 0.04 0.02 0.03 0.03 0.04 0.04 0.05 0.06 0.08 0.11 0.12 0.12 0.08 0.04 0.04 0.07 0.09 0.06 0.08 0.07 0.06 0.03 0.02 0.01 0.01 0.00 0.00 0.00 0.00 0.00
0.00 0.01 0.01 0.00 0.00 0.00 0.01 0.02 0.02 0.02 0.02 0.02 0.03 0.03 0.03 0.03 0.04 0.06 0.11 0.18 0.13 0.07 0.08 0.16 0.10 0.07 0.09 0.09 0.07 0.04 0.02 0.01 0.01 0.01 0.01 0.01 0.01 0.00
0.00 0.00 0.00 0.00 0.00 0.00 0.00 0.01 0.02 0.03 0.04 0.05 0.05 0.04 0.03 0.03 0.06 0.08 0.07 0.11 0.20 0.16 0.10 0.09 0.08 0.14 0.14 0.09 0.09 0.08 0.03 0.02 0.02 0.02 0.01 0.00 0.01 0.01
0.00 0.00 0.00 0.00 0.00 0.00 0.00 0.01 0.01 0.01 0.01 0.03 0.03 0.03 0.03 0.04 0.06 0.06 0.04 0.03 0.05 0.06 0.10 0.07 0.03 0.06 0.12 0.14 0.15 0.07 0.06 0.06 0.04 0.02 0.01 0.01 0.01 0.00
0.00 0.00 0.00 0.00 0.00 0.00 0.00 0.00 0.00 0.00 0.00 0.02 0.03 0.03 0.03 0.04 0.04 0.02 0.02 0.02 0.03 0.04 0.04 0.02 0.01 0.08 0.08 0.04 0.05 0.09 0.07 0.06 0.01 0.00 0.00 0.01 0.01 0.00
0.00 0.00 0.00 0.00 0.00 0.00 0.00 0.00 0.00 0.00 0.00 0.00 0.02 0.02 0.03 0.03 0.03 0.02 0.01 0.01 0.01 0.02 0.02 0.01 0.00 0.01 0.03 0.06 0.01 0.01 0.03 0.01 0.00 0.00 0.01 0.01 0.01 0.00
0.00 0.00 0.00 0.00 0.00 0.00 0.00 0.00 0.00 0.00 0.00 0.00 0.00 0.01 0.02 0.02 0.02 0.02 0.01 0.01 0.00 0.00 0.00 0.00 0.01 0.01 0.02 0.03 0.02 0.01 0.01 0.01 0.00 0.00 0.00 0.01 0.01 0.00
0.00 0.00 0.00 0.00 0.00 0.00 0.00 0.00 0.00 0.00 0.00 0.00 0.00 0.00 0.00 0.01 0.01 0.01 0.01 0.00 0.00 0.00 0.00 0.00 0.00 0.00 0.02 0.02 0.03 0.03 0.03 0.01 0.00 0.00 0.00 0.01 0.00 0.00
0.00 0.00 0.00 0.00 0.00 0.00 0.00 0.00 0.00 0.00 0.00 0.00 0.00 0.00 0.00 0.00 0.01 0.01 0.01 0.00 0.00 0.00 0.00 0.00 0.01 0.02 0.04 0.03 0.05 0.04 0.02 0.01 0.00 0.00 0.00 0.01 0.02 0.03
0.00 0.00 0.00 0.00 0.00 0.00 0.00 0.00 0.00 0.00 0.00 0.00 0.00 0.00 0.00 0.00 0.00 0.00 0.00 0.00 0.00 0.00 0.00 0.00 0.00 0.01 0.03 0.01 0.03 0.05 0.01 0.01 0.01 0.01 0.01 0.00 0.01 0.02